Time,TemperatureF,DewpointF,PressureIn,WindDirection,WindDirectionDegrees,WindSpeedMPH,WindSpeedGustMPH,Humidity,HourlyPrecipIn,Conditions,Clouds,dailyrainin,SoftwareType,DateUTC
2013-09-17 00:00:00,63.2,44.7,29.69,NNE,23,7.4,9.8,51,0.00,,,0.00,WUHU216HW,2013-09-17 06:00:00,
2013-09-17 00:01:00,62.8,44.4,29.69,NE,45,8.1,11.0,51,0.00,,,0.00,WUHU216HW,2013-09-17 06:01:00,
2013-09-17 00:02:00,62.8,43.9,29.69,North,0,11.2,11.2,50,0.00,,,0.00,WUHU216HW,2013-09-17 06:02:00,
2013-09-17 00:05:00,62.8,43.3,29.69,North,0,9.2,11.2,49,0.00,,,0.00,WUHU216HW,2013-09-17 06:05:00,
2013-09-17 00:06:00,63.0,44.1,29.69,NNE,23,14.3,14.3,50,0.00,,,0.00,WUHU216HW,2013-09-17 06:06:00,
2013-09-17 00:08:00,63.0,43.5,29.69,North,0,4.7,14.3,49,0.00,,,0.00,WUHU216HW,2013-09-17 06:08:00,
2013-09-17 00:10:00,63.4,42.7,29.69,North,0,4.3,14.3,47,0.00,,,0.00,WUHU216HW,2013-09-17 06:10:00,
2013-09-17 00:12:00,63.7,43.6,29.69,North,0,3.4,14.3,48,0.00,,,0.00,WUHU216HW,2013-09-17 06:12:00,
2013-09-17 00:13:00,63.7,43.6,29.69,NNE,23,3.6,14.3,48,0.00,,,0.00,WUHU216HW,2013-09-17 06:13:00,
2013-09-17 00:15:00,63.5,42.9,29.69,NNE,23,10.5,14.3,47,0.00,,,0.00,WUHU216HW,2013-09-17 06:15:00,
2013-09-17 00:17:00,63.9,43.1,29.69,North,0,13.6,14.5,47,0.00,,,0.00,WUHU216HW,2013-09-17 06:17:00,
2013-09-17 00:20:00,64.1,43.3,29.69,North,0,8.9,14.5,47,0.00,,,0.00,WUHU216HW,2013-09-17 06:20:00,
2013-09-17 00:22:00,63.9,43.1,29.69,NNW,338,6.7,14.5,47,0.00,,,0.00,WUHU216HW,2013-09-17 06:22:00,
2013-09-17 00:25:00,63.5,43.4,29.69,North,0,6.3,14.5,48,0.00,,,0.00,WUHU216HW,2013-09-17 06:25:00,
2013-09-17 00:27:00,63.4,43.2,29.69,North,0,5.4,14.5,48,0.00,,,0.00,WUHU216HW,2013-09-17 06:27:00,
2013-09-17 00:30:00,63.0,43.5,29.69,North,0,4.9,8.5,49,0.00,,,0.00,WUHU216HW,2013-09-17 06:30:00,
2013-09-17 00:31:00,63.0,43.5,29.69,North,0,6.0,7.8,49,0.00,,,0.00,WUHU216HW,2013-09-17 06:31:00,
2013-09-17 00:32:00,62.8,43.3,29.69,NNW,338,6.9,7.8,49,0.00,,,0.00,WUHU216HW,2013-09-17 06:32:00,
2013-09-17 00:33:00,62.8,43.3,29.69,North,0,6.3,7.8,49,0.00,,,0.00,WUHU216HW,2013-09-17 06:33:00,
2013-09-17 00:35:00,62.6,43.2,29.69,North,0,5.4,6.9,49,0.00,,,0.00,WUHU216HW,2013-09-17 06:35:00,
2013-09-17 00:36:00,62.6,43.2,29.69,NNW,338,4.7,6.9,49,0.00,,,0.00,WUHU216HW,2013-09-17 06:36:00,
2013-09-17 00:37:00,62.5,43.0,29.69,NNW,338,6.5,6.9,49,0.00,,,0.00,WUHU216HW,2013-09-17 06:37:00,
2013-09-17 00:38:00,62.5,43.0,29.69,NNW,338,6.7,6.9,49,0.00,,,0.00,WUHU216HW,2013-09-17 06:38:00,
2013-09-17 00:40:00,62.3,42.8,29.69,NNW,338,6.7,6.9,49,0.00,,,0.00,WUHU216HW,2013-09-17 06:40:00,
2013-09-17 00:41:00,62.3,42.8,29.69,NNW,338,6.7,6.9,49,0.00,,,0.00,WUHU216HW,2013-09-17 06:41:00,
2013-09-17 00:42:00,62.1,43.3,29.69,NW,315,6.5,6.7,50,0.00,,,0.00,WUHU216HW,2013-09-17 06:42:00,
2013-09-17 00:43:00,62.1,43.3,29.69,NNW,338,6.3,6.7,50,0.00,,,0.00,WUHU216HW,2013-09-17 06:43:00,
2013-09-17 00:46:00,61.9,43.1,29.69,NW,315,6.7,6.7,50,0.00,,,0.00,WUHU216HW,2013-09-17 06:46:00,
2013-09-17 00:47:00,61.7,42.9,29.69,NW,315,4.7,6.7,50,0.00,,,0.00,WUHU216HW,2013-09-17 06:47:00,
2013-09-17 00:48:00,61.7,42.9,29.69,NW,315,6.0,6.7,50,0.00,,,0.00,WUHU216HW,2013-09-17 06:48:00,
2013-09-17 00:51:00,61.6,43.3,29.69,NW,315,6.3,6.7,51,0.00,,,0.00,WUHU216HW,2013-09-17 06:51:00,
2013-09-17 00:52:00,61.2,42.9,29.69,NW,315,6.0,6.7,51,0.00,,,0.00,WUHU216HW,2013-09-17 06:52:00,
2013-09-17 00:53:00,61.2,43.4,29.69,NW,315,5.4,6.7,52,0.00,,,0.00,WUHU216HW,2013-09-17 06:53:00,
2013-09-17 00:54:00,61.0,43.3,29.69,WNW,293,5.4,6.7,52,0.00,,,0.00,WUHU216HW,2013-09-17 06:54:00,
2013-09-17 00:56:00,60.8,43.1,29.69,NW,315,5.6,6.7,52,0.00,,,0.00,WUHU216HW,2013-09-17 06:56:00,
2013-09-17 00:57:00,60.8,43.1,29.69,NW,315,6.5,6.5,52,0.00,,,0.00,WUHU216HW,2013-09-17 06:57:00,
2013-09-17 00:58:00,60.8,43.1,29.69,WNW,293,5.6,6.5,52,0.00,,,0.00,WUHU216HW,2013-09-17 06:58:00,
2013-09-17 00:59:00,60.7,42.9,29.69,NW,315,4.7,6.5,52,0.00,,,0.00,WUHU216HW,2013-09-17 06:59:00,
2013-09-17 01:01:00,60.7,42.9,29.69,WNW,293,5.1,6.5,52,0.00,,,0.00,WUHU216HW,2013-09-17 07:01:00,
2013-09-17 01:02:00,60.5,42.8,29.69,NW,315,5.4,6.5,52,0.00,,,0.00,WUHU216HW,2013-09-17 07:02:00,
2013-09-17 01:03:00,60.5,42.8,29.69,WNW,293,5.4,6.5,52,0.00,,,0.00,WUHU216HW,2013-09-17 07:03:00,
2013-09-17 01:04:00,60.3,42.6,29.69,NW,315,4.7,6.5,52,0.00,,,0.00,WUHU216HW,2013-09-17 07:04:00,
2013-09-17 01:06:00,60.1,42.4,29.69,WNW,293,5.4,6.5,52,0.00,,,0.00,WUHU216HW,2013-09-17 07:06:00,
2013-09-17 01:08:00,60.1,42.9,29.69,NW,315,4.9,5.6,53,0.00,,,0.00,WUHU216HW,2013-09-17 07:08:00,
2013-09-17 01:09:00,60.1,42.9,29.69,NW,315,5.8,5.8,53,0.00,,,0.00,WUHU216HW,2013-09-17 07:09:00,
2013-09-17 01:11:00,60.1,42.9,29.69,NW,315,5.6,6.0,53,0.00,,,0.00,WUHU216HW,2013-09-17 07:11:00,
2013-09-17 01:13:00,60.1,42.9,29.69,WNW,293,5.8,6.0,53,0.00,,,0.00,WUHU216HW,2013-09-17 07:13:00,
2013-09-17 01:14:00,60.1,42.9,29.69,NW,315,6.3,6.5,53,0.00,,,0.00,WUHU216HW,2013-09-17 07:14:00,
2013-09-17 01:16:00,59.9,42.8,29.69,NW,315,7.2,7.2,53,0.00,,,0.00,WUHU216HW,2013-09-17 07:16:00,
2013-09-17 01:17:00,59.9,42.8,29.69,NW,315,6.9,7.2,53,0.00,,,0.00,WUHU216HW,2013-09-17 07:17:00,
2013-09-17 01:18:00,59.9,42.8,29.69,NW,315,6.5,7.2,53,0.00,,,0.00,WUHU216HW,2013-09-17 07:18:00,
2013-09-17 01:19:00,59.9,42.8,29.69,NW,315,6.7,7.2,53,0.00,,,0.00,WUHU216HW,2013-09-17 07:19:00,
2013-09-17 01:20:00,60.1,42.4,29.69,NW,315,6.9,7.2,52,0.00,,,0.00,WUHU216HW,2013-09-17 07:20:00,
2013-09-17 01:21:00,60.1,42.4,29.69,NW,315,7.2,7.6,52,0.00,,,0.00,WUHU216HW,2013-09-17 07:21:00,
2013-09-17 01:22:00,60.1,42.4,29.69,NW,315,6.9,7.6,52,0.00,,,0.00,WUHU216HW,2013-09-17 07:22:00,
2013-09-17 01:24:00,60.3,42.6,29.69,NNW,338,7.6,8.1,52,0.00,,,0.00,WUHU216HW,2013-09-17 07:24:00,
2013-09-17 01:25:00,60.5,42.8,29.69,NNW,338,7.6,8.1,52,0.00,,,0.00,WUHU216HW,2013-09-17 07:25:00,
2013-09-17 01:27:00,60.5,42.3,29.69,NW,315,8.1,8.3,51,0.00,,,0.00,WUHU216HW,2013-09-17 07:27:00,
2013-09-17 01:29:00,60.5,42.3,29.69,NNW,338,7.6,8.9,51,0.00,,,0.00,WUHU216HW,2013-09-17 07:29:00,
2013-09-17 01:30:00,60.5,42.8,29.69,NNW,338,7.2,8.9,52,0.00,,,0.00,WUHU216HW,2013-09-17 07:30:00,
2013-09-17 01:32:00,60.5,42.8,29.69,NW,315,7.6,8.9,52,0.00,,,0.00,WUHU216HW,2013-09-17 07:32:00,
2013-09-17 01:34:00,60.3,42.6,29.69,NW,315,7.6,8.9,52,0.00,,,0.00,WUHU216HW,2013-09-17 07:34:00,
2013-09-17 01:35:00,60.3,42.6,29.69,NW,315,7.6,8.9,52,0.00,,,0.00,WUHU216HW,2013-09-17 07:35:00,
2013-09-17 01:36:00,60.3,42.6,29.69,NW,315,6.3,8.9,52,0.00,,,0.00,WUHU216HW,2013-09-17 07:36:00,
2013-09-17 01:37:00,60.1,42.4,29.69,NW,315,5.6,8.9,52,0.00,,,0.00,WUHU216HW,2013-09-17 07:37:00,
2013-09-17 01:38:00,60.1,42.4,29.69,NW,315,5.6,8.9,52,0.00,,,0.00,WUHU216HW,2013-09-17 07:38:00,
2013-09-17 01:39:00,59.9,42.3,29.69,NW,315,4.7,8.3,52,0.00,,,0.00,WUHU216HW,2013-09-17 07:39:00,
2013-09-17 01:40:00,59.9,42.3,29.69,West,270,6.0,8.3,52,0.00,,,0.00,WUHU216HW,2013-09-17 07:40:00,
2013-09-17 01:41:00,59.8,42.1,29.69,WNW,293,5.8,8.3,52,0.00,,,0.00,WUHU216HW,2013-09-17 07:41:00,
2013-09-17 01:43:00,59.6,42.0,29.69,NW,315,5.4,7.6,52,0.00,,,0.00,WUHU216HW,2013-09-17 07:43:00,
2013-09-17 01:45:00,59.4,42.2,29.69,West,270,6.0,6.9,53,0.00,,,0.00,WUHU216HW,2013-09-17 07:45:00,
2013-09-17 01:46:00,59.4,42.2,29.69,WNW,293,5.4,6.0,53,0.00,,,0.00,WUHU216HW,2013-09-17 07:46:00,
2013-09-17 01:48:00,59.4,42.2,29.69,West,270,6.3,6.3,53,0.00,,,0.00,WUHU216HW,2013-09-17 07:48:00,
2013-09-17 01:50:00,59.4,42.2,29.69,West,270,5.6,6.3,53,0.00,,,0.00,WUHU216HW,2013-09-17 07:50:00,
2013-09-17 01:51:00,59.4,42.2,29.69,West,270,7.6,7.6,53,0.00,,,0.00,WUHU216HW,2013-09-17 07:51:00,
2013-09-17 01:53:00,59.2,42.0,29.69,WNW,293,4.9,7.6,53,0.00,,,0.00,WUHU216HW,2013-09-17 07:53:00,
2013-09-17 01:55:00,59.2,42.0,29.69,WNW,293,5.6,7.6,53,0.00,,,0.00,WUHU216HW,2013-09-17 07:55:00,
2013-09-17 01:56:00,59.2,42.0,29.69,WNW,293,5.4,7.6,53,0.00,,,0.00,WUHU216HW,2013-09-17 07:56:00,
2013-09-17 01:58:00,59.4,42.2,29.69,WNW,293,5.4,7.6,53,0.00,,,0.00,WUHU216HW,2013-09-17 07:58:00,
2013-09-17 02:00:00,59.4,42.2,29.69,NW,315,5.1,7.6,53,0.00,,,0.00,WUHU216HW,2013-09-17 08:00:00,
2013-09-17 02:01:00,59.4,42.2,29.69,NW,315,6.3,7.6,53,0.00,,,0.00,WUHU216HW,2013-09-17 08:01:00,
2013-09-17 02:02:00,59.4,42.2,29.69,NW,315,6.3,6.9,53,0.00,,,0.00,WUHU216HW,2013-09-17 08:02:00,
2013-09-17 02:03:00,59.4,42.2,29.69,NW,315,6.5,6.9,53,0.00,,,0.00,WUHU216HW,2013-09-17 08:03:00,
2013-09-17 02:05:00,59.4,42.2,29.69,NW,315,7.6,7.6,53,0.00,,,0.00,WUHU216HW,2013-09-17 08:05:00,
2013-09-17 02:06:00,59.4,42.2,29.69,NW,315,7.8,7.8,53,0.00,,,0.00,WUHU216HW,2013-09-17 08:06:00,
2013-09-17 02:08:00,59.4,42.2,29.69,NW,315,6.9,7.8,53,0.00,,,0.00,WUHU216HW,2013-09-17 08:08:00,
2013-09-17 02:10:00,59.2,42.0,29.69,NW,315,7.4,7.8,53,0.00,,,0.00,WUHU216HW,2013-09-17 08:10:00,
2013-09-17 02:11:00,59.2,42.0,29.69,NW,315,7.6,7.8,53,0.00,,,0.00,WUHU216HW,2013-09-17 08:11:00,
2013-09-17 02:13:00,59.0,42.0,29.69,NW,315,8.5,8.5,53,0.00,,,0.00,WUHU216HW,2013-09-17 08:13:00,
2013-09-17 02:15:00,59.0,42.0,29.69,NW,315,7.4,8.5,53,0.00,,,0.00,WUHU216HW,2013-09-17 08:15:00,
2013-09-17 02:16:00,59.0,42.0,29.69,NW,315,7.2,8.5,53,0.00,,,0.00,WUHU216HW,2013-09-17 08:16:00,
2013-09-17 02:17:00,59.0,42.0,29.69,NW,315,7.8,8.5,53,0.00,,,0.00,WUHU216HW,2013-09-17 08:17:00,
2013-09-17 02:18:00,59.2,42.0,29.69,NW,315,7.4,8.5,53,0.00,,,0.00,WUHU216HW,2013-09-17 08:18:00,
2013-09-17 02:19:00,59.2,42.0,29.69,NW,315,7.4,8.5,53,0.00,,,0.00,WUHU216HW,2013-09-17 08:19:00,
2013-09-17 02:20:00,59.2,42.0,29.69,NW,315,6.9,8.5,53,0.00,,,0.00,WUHU216HW,2013-09-17 08:20:00,
2013-09-17 02:21:00,59.2,42.0,29.69,WNW,293,6.0,8.5,53,0.00,,,0.00,WUHU216HW,2013-09-17 08:21:00,
2013-09-17 02:22:00,59.2,42.0,29.69,WNW,293,6.3,8.5,53,0.00,,,0.00,WUHU216HW,2013-09-17 08:22:00,
2013-09-17 02:24:00,59.2,42.0,29.69,NW,315,6.9,8.3,53,0.00,,,0.00,WUHU216HW,2013-09-17 08:24:00,
2013-09-17 02:26:00,59.2,42.0,29.69,NW,315,6.3,8.3,53,0.00,,,0.00,WUHU216HW,2013-09-17 08:26:00,
2013-09-17 02:27:00,59.2,42.0,29.69,NW,315,6.5,7.8,53,0.00,,,0.00,WUHU216HW,2013-09-17 08:27:00,
2013-09-17 02:29:00,59.4,42.2,29.69,WNW,293,6.9,7.4,53,0.00,,,0.00,WUHU216HW,2013-09-17 08:29:00,
2013-09-17 02:30:00,59.4,42.2,29.69,NW,315,7.6,7.6,53,0.00,,,0.00,WUHU216HW,2013-09-17 08:30:00,
2013-09-17 02:31:00,59.4,42.2,29.69,NW,315,6.3,7.6,53,0.00,,,0.00,WUHU216HW,2013-09-17 08:31:00,
2013-09-17 02:32:00,59.4,42.2,29.69,NW,315,7.6,7.6,53,0.00,,,0.00,WUHU216HW,2013-09-17 08:32:00,
2013-09-17 02:33:00,59.4,42.2,29.69,NW,315,6.7,7.6,53,0.00,,,0.00,WUHU216HW,2013-09-17 08:33:00,
2013-09-17 02:34:00,59.2,42.0,29.69,NW,315,6.7,7.6,53,0.00,,,0.00,WUHU216HW,2013-09-17 08:34:00,
2013-09-17 02:35:00,59.2,42.0,29.69,NW,315,7.2,7.6,53,0.00,,,0.00,WUHU216HW,2013-09-17 08:35:00,
2013-09-17 02:36:00,59.0,42.4,29.69,WNW,293,7.8,8.3,54,0.00,,,0.00,WUHU216HW,2013-09-17 08:36:00,
2013-09-17 02:38:00,59.0,42.4,29.69,NW,315,6.5,8.3,54,0.00,,,0.00,WUHU216HW,2013-09-17 08:38:00,
2013-09-17 02:39:00,59.0,42.4,29.69,NW,315,6.9,8.3,54,0.00,,,0.00,WUHU216HW,2013-09-17 08:39:00,
2013-09-17 02:40:00,58.9,42.2,29.69,WNW,293,5.6,8.3,54,0.00,,,0.00,WUHU216HW,2013-09-17 08:40:00,
2013-09-17 02:41:00,58.7,42.0,29.69,NW,315,6.9,8.3,54,0.00,,,0.00,WUHU216HW,2013-09-17 08:41:00,
2013-09-17 02:43:00,58.5,42.4,29.69,WNW,293,6.7,8.3,55,0.00,,,0.00,WUHU216HW,2013-09-17 08:43:00,
2013-09-17 02:44:00,58.5,42.4,29.69,WNW,293,6.3,8.3,55,0.00,,,0.00,WUHU216HW,2013-09-17 08:44:00,
2013-09-17 02:45:00,58.5,42.4,29.69,NW,315,5.4,8.3,55,0.00,,,0.00,WUHU216HW,2013-09-17 08:45:00,
2013-09-17 02:46:00,58.5,42.4,29.69,NW,315,6.9,7.8,55,0.00,,,0.00,WUHU216HW,2013-09-17 08:46:00,
2013-09-17 02:48:00,58.5,42.4,29.69,WNW,293,6.5,7.8,55,0.00,,,0.00,WUHU216HW,2013-09-17 08:48:00,
2013-09-17 02:50:00,58.7,42.5,29.69,NW,315,6.7,7.8,55,0.00,,,0.00,WUHU216HW,2013-09-17 08:50:00,
2013-09-17 02:51:00,58.7,42.5,29.69,WNW,293,6.3,7.8,55,0.00,,,0.00,WUHU216HW,2013-09-17 08:51:00,
2013-09-17 02:53:00,58.7,42.5,29.69,NW,315,5.4,7.8,55,0.00,,,0.00,WUHU216HW,2013-09-17 08:53:00,
2013-09-17 02:55:00,58.7,42.5,29.69,WNW,293,6.3,7.8,55,0.00,,,0.00,WUHU216HW,2013-09-17 08:55:00,
2013-09-17 02:56:00,58.7,42.5,29.69,WNW,293,5.4,7.6,55,0.00,,,0.00,WUHU216HW,2013-09-17 08:56:00,
2013-09-17 02:57:00,58.7,42.5,29.69,WNW,293,6.5,7.6,55,0.00,,,0.00,WUHU216HW,2013-09-17 08:57:00,
2013-09-17 02:58:00,58.7,42.5,29.69,WNW,293,6.7,7.6,55,0.00,,,0.00,WUHU216HW,2013-09-17 08:58:00,
2013-09-17 03:00:00,58.7,42.5,29.69,WNW,293,6.3,7.6,55,0.00,,,0.00,WUHU216HW,2013-09-17 09:00:00,
2013-09-17 03:01:00,58.7,42.5,29.69,West,270,6.7,7.6,55,0.00,,,0.00,WUHU216HW,2013-09-17 09:01:00,
2013-09-17 03:02:00,58.7,42.5,29.69,WNW,293,7.6,7.6,55,0.00,,,0.00,WUHU216HW,2013-09-17 09:02:00,
2013-09-17 03:04:00,58.9,42.7,29.69,WNW,293,6.9,7.6,55,0.00,,,0.00,WUHU216HW,2013-09-17 09:04:00,
2013-09-17 03:05:00,58.9,42.7,29.69,WNW,293,7.6,7.6,55,0.00,,,0.00,WUHU216HW,2013-09-17 09:05:00,
2013-09-17 03:06:00,58.9,42.7,29.69,WNW,293,7.8,7.8,55,0.00,,,0.00,WUHU216HW,2013-09-17 09:06:00,
2013-09-17 03:07:00,58.9,42.7,29.69,WNW,293,6.9,8.5,55,0.00,,,0.00,WUHU216HW,2013-09-17 09:07:00,
2013-09-17 03:09:00,59.0,42.8,29.69,NW,315,8.3,8.5,55,0.00,,,0.00,WUHU216HW,2013-09-17 09:09:00,
2013-09-17 03:10:00,59.0,42.8,29.69,NW,315,8.1,8.5,55,0.00,,,0.00,WUHU216HW,2013-09-17 09:10:00,
2013-09-17 03:11:00,59.0,42.8,29.69,NW,315,7.2,8.5,55,0.00,,,0.00,WUHU216HW,2013-09-17 09:11:00,
2013-09-17 03:12:00,59.0,42.8,29.69,WNW,293,6.7,8.5,55,0.00,,,0.00,WUHU216HW,2013-09-17 09:12:00,
2013-09-17 03:14:00,59.0,42.8,29.69,NW,315,6.9,9.2,55,0.00,,,0.00,WUHU216HW,2013-09-17 09:14:00,
2013-09-17 03:15:00,59.0,42.8,29.69,WNW,293,7.6,9.2,55,0.00,,,0.00,WUHU216HW,2013-09-17 09:15:00,
2013-09-17 03:16:00,59.0,42.8,29.69,NW,315,7.4,9.2,55,0.00,,,0.00,WUHU216HW,2013-09-17 09:16:00,
2013-09-17 03:17:00,58.9,42.7,29.69,WNW,293,7.8,9.2,55,0.00,,,0.00,WUHU216HW,2013-09-17 09:17:00,
2013-09-17 03:19:00,58.9,42.7,29.69,NW,315,7.6,9.2,55,0.00,,,0.00,WUHU216HW,2013-09-17 09:19:00,
2013-09-17 03:20:00,58.7,42.5,29.69,NNW,338,7.6,9.2,55,0.00,,,0.00,WUHU216HW,2013-09-17 09:20:00,
2013-09-17 03:21:00,58.7,42.5,29.69,NW,315,7.8,9.2,55,0.00,,,0.00,WUHU216HW,2013-09-17 09:21:00,
2013-09-17 03:22:00,58.7,42.5,29.69,NW,315,8.3,9.2,55,0.00,,,0.00,WUHU216HW,2013-09-17 09:22:00,
2013-09-17 03:24:00,58.9,42.7,29.69,NW,315,7.6,8.9,55,0.00,,,0.00,WUHU216HW,2013-09-17 09:24:00,
2013-09-17 03:25:00,58.9,42.7,29.69,NW,315,8.9,9.8,55,0.00,,,0.00,WUHU216HW,2013-09-17 09:25:00,
2013-09-17 03:26:00,58.9,42.7,29.69,NW,315,7.6,9.8,55,0.00,,,0.00,WUHU216HW,2013-09-17 09:26:00,
2013-09-17 03:27:00,58.9,42.7,29.69,NNW,338,11.0,11.0,55,0.00,,,0.00,WUHU216HW,2013-09-17 09:27:00,
2013-09-17 03:29:00,59.0,42.8,29.69,NW,315,10.5,11.0,55,0.00,,,0.00,WUHU216HW,2013-09-17 09:29:00,
2013-09-17 03:30:00,59.0,42.8,29.69,NNW,338,10.1,11.0,55,0.00,,,0.00,WUHU216HW,2013-09-17 09:30:00,
2013-09-17 03:31:00,59.0,42.8,29.69,NNW,338,10.1,11.0,55,0.00,,,0.00,WUHU216HW,2013-09-17 09:31:00,
2013-09-17 03:32:00,59.0,42.8,29.69,NNW,338,9.4,11.0,55,0.00,,,0.00,WUHU216HW,2013-09-17 09:32:00,
2013-09-17 03:33:00,59.0,42.8,29.69,NW,315,10.7,11.0,55,0.00,,,0.00,WUHU216HW,2013-09-17 09:33:00,
2013-09-17 03:34:00,59.0,42.8,29.69,NW,315,8.5,11.0,55,0.00,,,0.00,WUHU216HW,2013-09-17 09:34:00,
2013-09-17 03:35:00,59.0,42.8,29.69,NW,315,10.1,11.0,55,0.00,,,0.00,WUHU216HW,2013-09-17 09:35:00,
2013-09-17 03:36:00,58.9,42.7,29.69,NW,315,9.2,11.0,55,0.00,,,0.00,WUHU216HW,2013-09-17 09:36:00,
2013-09-17 03:37:00,58.9,42.7,29.69,NW,315,11.4,11.4,55,0.00,,,0.00,WUHU216HW,2013-09-17 09:37:00,
2013-09-17 03:38:00,58.9,42.7,29.69,NW,315,11.4,11.4,55,0.00,,,0.00,WUHU216HW,2013-09-17 09:38:00,
2013-09-17 03:39:00,58.7,42.5,29.69,NW,315,12.8,12.8,55,0.00,,,0.00,WUHU216HW,2013-09-17 09:39:00,
2013-09-17 03:41:00,58.7,42.5,29.69,NW,315,13.0,13.4,55,0.00,,,0.00,WUHU216HW,2013-09-17 09:41:00,
2013-09-17 03:42:00,58.7,42.5,29.69,NW,315,12.8,13.4,55,0.00,,,0.00,WUHU216HW,2013-09-17 09:42:00,
2013-09-17 03:43:00,58.7,42.5,29.69,NW,315,12.1,13.4,55,0.00,,,0.00,WUHU216HW,2013-09-17 09:43:00,
2013-09-17 03:45:00,58.7,42.5,29.69,NW,315,10.5,13.4,55,0.00,,,0.00,WUHU216HW,2013-09-17 09:45:00,
2013-09-17 03:47:00,58.5,42.4,29.69,NW,315,11.4,13.4,55,0.00,,,0.00,WUHU216HW,2013-09-17 09:47:00,
2013-09-17 03:48:00,58.3,42.2,29.69,NNW,338,11.0,13.4,55,0.00,,,0.00,WUHU216HW,2013-09-17 09:48:00,
2013-09-17 03:50:00,58.3,42.7,29.69,NNW,338,8.9,13.4,56,0.00,,,0.00,WUHU216HW,2013-09-17 09:50:00,
2013-09-17 03:52:00,58.3,42.7,29.69,NNW,338,9.8,12.1,56,0.00,,,0.00,WUHU216HW,2013-09-17 09:52:00,
2013-09-17 03:53:00,58.1,42.5,29.69,NNW,338,9.6,12.1,56,0.00,,,0.00,WUHU216HW,2013-09-17 09:53:00,
2013-09-17 03:54:00,58.1,42.5,29.69,NNW,338,9.2,12.1,56,0.00,,,0.00,WUHU216HW,2013-09-17 09:54:00,
2013-09-17 03:55:00,58.0,42.3,29.69,NNW,338,10.5,11.6,56,0.00,,,0.00,WUHU216HW,2013-09-17 09:55:00,
2013-09-17 03:57:00,58.0,42.9,29.69,NNW,338,10.1,11.4,57,0.00,,,0.00,WUHU216HW,2013-09-17 09:57:00,
2013-09-17 03:58:00,57.8,42.7,29.69,NW,315,9.2,11.6,57,0.00,,,0.00,WUHU216HW,2013-09-17 09:58:00,
2013-09-17 03:59:00,57.8,42.7,29.69,NW,315,9.2,11.6,57,0.00,,,0.00,WUHU216HW,2013-09-17 09:59:00,
2013-09-17 04:00:00,57.8,42.7,29.69,NNW,338,11.2,11.6,57,0.00,,,0.00,WUHU216HW,2013-09-17 10:00:00,
2013-09-17 04:02:00,57.6,42.0,29.69,NW,315,10.1,11.6,56,0.00,,,0.00,WUHU216HW,2013-09-17 10:02:00,
2013-09-17 04:03:00,57.6,42.0,29.69,WNW,293,8.5,11.6,56,0.00,,,0.00,WUHU216HW,2013-09-17 10:03:00,
2013-09-17 04:04:00,57.6,42.5,29.69,NW,315,9.4,11.6,57,0.00,,,0.00,WUHU216HW,2013-09-17 10:04:00,
2013-09-17 04:06:00,57.4,42.3,29.69,NW,315,9.8,11.6,57,0.00,,,0.00,WUHU216HW,2013-09-17 10:06:00,
2013-09-17 04:07:00,57.2,42.1,29.69,NW,315,8.9,11.6,57,0.00,,,0.00,WUHU216HW,2013-09-17 10:07:00,
2013-09-17 04:08:00,57.2,42.1,29.69,NW,315,10.5,11.2,57,0.00,,,0.00,WUHU216HW,2013-09-17 10:08:00,
2013-09-17 04:09:00,57.1,41.9,29.69,WNW,293,9.2,11.2,57,0.00,,,0.00,WUHU216HW,2013-09-17 10:09:00,
2013-09-17 04:11:00,56.9,42.3,29.69,WNW,293,8.9,10.5,58,0.00,,,0.00,WUHU216HW,2013-09-17 10:11:00,
2013-09-17 04:12:00,56.7,42.1,29.69,NNW,338,8.1,10.5,58,0.00,,,0.00,WUHU216HW,2013-09-17 10:12:00,
2013-09-17 04:13:00,56.7,42.1,29.69,NW,315,9.8,10.5,58,0.00,,,0.00,WUHU216HW,2013-09-17 10:13:00,
2013-09-17 04:14:00,56.5,42.0,29.69,NW,315,8.7,10.5,58,0.00,,,0.00,WUHU216HW,2013-09-17 10:14:00,
2013-09-17 04:17:00,56.5,42.0,29.69,WNW,293,8.5,10.5,58,0.00,,,0.00,WUHU216HW,2013-09-17 10:17:00,
2013-09-17 04:18:00,56.5,42.0,29.69,NW,315,9.6,10.5,58,0.00,,,0.00,WUHU216HW,2013-09-17 10:18:00,
2013-09-17 04:19:00,56.5,42.0,29.69,WNW,293,8.1,10.5,58,0.00,,,0.00,WUHU216HW,2013-09-17 10:19:00,
2013-09-17 04:22:00,56.5,42.0,29.69,WNW,293,8.1,10.5,58,0.00,,,0.00,WUHU216HW,2013-09-17 10:22:00,
2013-09-17 04:23:00,56.5,42.0,29.69,WNW,293,9.2,10.5,58,0.00,,,0.00,WUHU216HW,2013-09-17 10:23:00,
2013-09-17 04:24:00,56.5,42.0,29.69,WNW,293,8.7,10.5,58,0.00,,,0.00,WUHU216HW,2013-09-17 10:24:00,
2013-09-17 04:28:00,56.7,42.6,29.69,NW,315,10.5,10.7,59,0.00,,,0.00,WUHU216HW,2013-09-17 10:28:00,
2013-09-17 04:29:00,56.7,42.6,29.69,NW,315,9.8,10.7,59,0.00,,,0.00,WUHU216HW,2013-09-17 10:29:00,
2013-09-17 04:30:00,56.9,42.3,29.69,WNW,293,7.4,10.7,58,0.00,,,0.00,WUHU216HW,2013-09-17 10:30:00,
2013-09-17 04:33:00,57.1,42.5,29.69,WNW,293,10.5,11.4,58,0.00,,,0.00,WUHU216HW,2013-09-17 10:33:00,
2013-09-17 04:34:00,57.2,42.7,29.69,WNW,293,9.6,11.4,58,0.00,,,0.00,WUHU216HW,2013-09-17 10:34:00,
2013-09-17 04:35:00,57.2,42.1,29.69,WNW,293,9.8,11.4,57,0.00,,,0.00,WUHU216HW,2013-09-17 10:35:00,
2013-09-17 04:38:00,57.2,42.1,29.69,WNW,293,8.1,11.4,57,0.00,,,0.00,WUHU216HW,2013-09-17 10:38:00,
2013-09-17 04:39:00,57.2,42.1,29.69,NW,315,8.9,11.4,57,0.00,,,0.00,WUHU216HW,2013-09-17 10:39:00,
2013-09-17 04:40:00,57.4,42.3,29.69,NW,315,9.6,11.4,57,0.00,,,0.00,WUHU216HW,2013-09-17 10:40:00,
2013-09-17 04:43:00,57.4,42.3,29.69,WNW,293,9.6,11.0,57,0.00,,,0.00,WUHU216HW,2013-09-17 10:43:00,
2013-09-17 04:44:00,57.6,42.5,29.68,WNW,293,7.6,11.0,57,0.00,,,0.00,WUHU216HW,2013-09-17 10:44:00,
2013-09-17 04:45:00,57.6,42.5,29.69,WNW,293,7.2,11.0,57,0.00,,,0.00,WUHU216HW,2013-09-17 10:45:00,
2013-09-17 04:48:00,57.6,42.5,29.69,NW,315,8.5,11.0,57,0.00,,,0.00,WUHU216HW,2013-09-17 10:48:00,
2013-09-17 04:49:00,57.6,42.5,29.69,NW,315,8.1,11.0,57,0.00,,,0.00,WUHU216HW,2013-09-17 10:49:00,
2013-09-17 04:50:00,57.6,42.0,29.69,NW,315,5.8,10.1,56,0.00,,,0.00,WUHU216HW,2013-09-17 10:50:00,
2013-09-17 04:51:00,57.6,42.0,29.69,NW,315,6.0,10.1,56,0.00,,,0.00,WUHU216HW,2013-09-17 10:51:00,
2013-09-17 04:53:00,57.4,42.3,29.69,NW,315,7.2,9.6,57,0.00,,,0.00,WUHU216HW,2013-09-17 10:53:00,
2013-09-17 04:54:00,57.4,42.3,29.69,NW,315,8.9,9.6,57,0.00,,,0.00,WUHU216HW,2013-09-17 10:54:00,
2013-09-17 04:55:00,57.2,42.1,29.69,NW,315,7.8,9.8,57,0.00,,,0.00,WUHU216HW,2013-09-17 10:55:00,
2013-09-17 04:56:00,57.2,42.1,29.69,NW,315,9.4,9.8,57,0.00,,,0.00,WUHU216HW,2013-09-17 10:56:00,
2013-09-17 04:59:00,57.2,42.1,29.69,NW,315,8.3,10.1,57,0.00,,,0.00,WUHU216HW,2013-09-17 10:59:00,
2013-09-17 05:01:00,57.4,42.3,29.69,NW,315,9.4,10.1,57,0.00,,,0.00,WUHU216HW,2013-09-17 11:01:00,
2013-09-17 05:02:00,57.4,42.3,29.69,West,270,8.5,10.1,57,0.00,,,0.00,WUHU216HW,2013-09-17 11:02:00,
2013-09-17 05:04:00,57.4,42.3,29.69,NW,315,8.1,10.1,57,0.00,,,0.00,WUHU216HW,2013-09-17 11:04:00,
2013-09-17 05:06:00,57.4,42.3,29.69,NW,315,7.6,10.1,57,0.00,,,0.00,WUHU216HW,2013-09-17 11:06:00,
2013-09-17 05:07:00,57.4,42.3,29.69,NW,315,6.9,10.1,57,0.00,,,0.00,WUHU216HW,2013-09-17 11:07:00,
2013-09-17 05:09:00,57.4,42.3,29.69,NW,315,7.8,10.1,57,0.00,,,0.00,WUHU216HW,2013-09-17 11:09:00,
2013-09-17 05:11:00,57.2,42.1,29.69,NW,315,6.3,10.1,57,0.00,,,0.00,WUHU216HW,2013-09-17 11:11:00,
2013-09-17 05:12:00,57.4,42.3,29.69,NW,315,6.5,9.8,57,0.00,,,0.00,WUHU216HW,2013-09-17 11:12:00,
2013-09-17 05:14:00,57.2,42.1,29.69,NW,315,7.4,8.3,57,0.00,,,0.00,WUHU216HW,2013-09-17 11:14:00,
2013-09-17 05:16:00,57.2,42.1,29.69,NNW,338,7.4,8.5,57,0.00,,,0.00,WUHU216HW,2013-09-17 11:16:00,
2013-09-17 05:17:00,57.2,42.1,29.69,NW,315,8.3,8.5,57,0.00,,,0.00,WUHU216HW,2013-09-17 11:17:00,
2013-09-17 05:18:00,57.2,42.1,29.69,NNW,338,8.1,8.5,57,0.00,,,0.00,WUHU216HW,2013-09-17 11:18:00,
2013-09-17 05:19:00,57.1,41.9,29.69,NNW,338,6.7,8.5,57,0.00,,,0.00,WUHU216HW,2013-09-17 11:19:00,
2013-09-17 05:20:00,57.1,42.5,29.69,NW,315,6.3,8.5,58,0.00,,,0.00,WUHU216HW,2013-09-17 11:20:00,
2013-09-17 05:21:00,56.9,42.3,29.69,NNW,338,6.9,8.5,58,0.00,,,0.00,WUHU216HW,2013-09-17 11:21:00,
2013-09-17 05:23:00,56.5,42.0,29.69,NW,315,7.4,8.5,58,0.00,,,0.00,WUHU216HW,2013-09-17 11:23:00,
2013-09-17 05:24:00,56.5,42.4,29.69,NW,315,7.8,8.5,59,0.00,,,0.00,WUHU216HW,2013-09-17 11:24:00,
2013-09-17 05:25:00,56.5,42.4,29.69,NNW,338,8.1,8.5,59,0.00,,,0.00,WUHU216HW,2013-09-17 11:25:00,
2013-09-17 05:26:00,56.3,42.2,29.69,WNW,293,6.3,8.5,59,0.00,,,0.00,WUHU216HW,2013-09-17 11:26:00,
2013-09-17 05:29:00,56.2,42.5,29.69,NW,315,7.8,9.2,60,0.00,,,0.00,WUHU216HW,2013-09-17 11:29:00,
2013-09-17 05:30:00,56.2,42.5,29.69,NW,315,8.9,9.2,60,0.00,,,0.00,WUHU216HW,2013-09-17 11:30:00,
2013-09-17 05:31:00,56.0,42.3,29.69,NW,315,7.8,9.2,60,0.00,,,0.00,WUHU216HW,2013-09-17 11:31:00,
2013-09-17 05:34:00,55.8,42.1,29.69,NW,315,7.4,9.2,60,0.00,,,0.00,WUHU216HW,2013-09-17 11:34:00,
2013-09-17 05:35:00,55.8,42.1,29.69,NW,315,8.9,9.2,60,0.00,,,0.00,WUHU216HW,2013-09-17 11:35:00,
2013-09-17 05:37:00,55.6,42.4,29.69,NW,315,7.2,9.2,61,0.00,,,0.00,WUHU216HW,2013-09-17 11:37:00,
2013-09-17 05:39:00,55.4,42.2,29.69,NW,315,7.6,9.2,61,0.00,,,0.00,WUHU216HW,2013-09-17 11:39:00,
2013-09-17 05:40:00,55.4,42.2,29.69,WNW,293,6.9,8.9,61,0.00,,,0.00,WUHU216HW,2013-09-17 11:40:00,
2013-09-17 05:42:00,55.4,42.2,29.69,WNW,293,6.0,8.9,61,0.00,,,0.00,WUHU216HW,2013-09-17 11:42:00,
2013-09-17 05:44:00,55.4,42.6,29.69,WNW,293,6.9,8.9,62,0.00,,,0.00,WUHU216HW,2013-09-17 11:44:00,
2013-09-17 05:45:00,55.4,42.6,29.69,NW,315,6.5,8.9,62,0.00,,,0.00,WUHU216HW,2013-09-17 11:45:00,
2013-09-17 05:47:00,55.6,42.4,29.69,NW,315,6.5,7.6,61,0.00,,,0.00,WUHU216HW,2013-09-17 11:47:00,
2013-09-17 05:49:00,55.6,42.4,29.69,WNW,293,6.7,8.1,61,0.00,,,0.00,WUHU216HW,2013-09-17 11:49:00,
2013-09-17 05:50:00,55.6,42.4,29.69,NW,315,6.7,8.1,61,0.00,,,0.00,WUHU216HW,2013-09-17 11:50:00,
2013-09-17 05:51:00,55.6,42.4,29.69,NW,315,7.4,8.1,61,0.00,,,0.00,WUHU216HW,2013-09-17 11:51:00,
2013-09-17 05:52:00,55.6,42.4,29.69,NW,315,7.2,8.3,61,0.00,,,0.00,WUHU216HW,2013-09-17 11:52:00,
2013-09-17 05:55:00,55.8,42.6,29.68,NW,315,6.7,8.3,61,0.00,,,0.00,WUHU216HW,2013-09-17 11:55:00,
2013-09-17 05:56:00,55.8,42.6,29.68,NW,315,7.2,8.3,61,0.00,,,0.00,WUHU216HW,2013-09-17 11:56:00,
2013-09-17 05:57:00,55.8,42.6,29.68,NW,315,7.6,8.3,61,0.00,,,0.00,WUHU216HW,2013-09-17 11:57:00,
2013-09-17 06:00:00,55.6,42.4,29.68,NW,315,7.6,8.5,61,0.00,,,0.00,WUHU216HW,2013-09-17 12:00:00,
2013-09-17 06:01:00,55.4,42.6,29.68,NW,315,7.8,8.5,62,0.00,,,0.00,WUHU216HW,2013-09-17 12:01:00,
2013-09-17 06:03:00,55.1,42.3,29.68,NW,315,7.6,8.5,62,0.00,,,0.00,WUHU216HW,2013-09-17 12:03:00,
2013-09-17 06:05:00,55.1,42.7,29.68,WNW,293,7.6,8.5,63,0.00,,,0.00,WUHU216HW,2013-09-17 12:05:00,
2013-09-17 06:06:00,54.9,42.5,29.68,West,270,7.6,8.5,63,0.00,,,0.00,WUHU216HW,2013-09-17 12:06:00,
2013-09-17 06:08:00,55.1,42.7,29.68,WNW,293,6.7,8.5,63,0.00,,,0.00,WUHU216HW,2013-09-17 12:08:00,
2013-09-17 06:10:00,55.1,42.7,29.68,WNW,293,5.6,8.1,63,0.00,,,0.00,WUHU216HW,2013-09-17 12:10:00,
2013-09-17 06:11:00,55.3,42.9,29.68,WNW,293,6.3,8.1,63,0.00,,,0.00,WUHU216HW,2013-09-17 12:11:00,
2013-09-17 06:13:00,55.1,42.3,29.68,WNW,293,5.8,8.1,62,0.00,,,0.00,WUHU216HW,2013-09-17 12:13:00,
2013-09-17 06:16:00,55.1,42.3,29.68,NW,315,4.7,7.6,62,0.00,,,0.00,WUHU216HW,2013-09-17 12:16:00,
2013-09-17 06:18:00,55.1,42.3,29.68,NNW,338,4.0,6.7,62,0.00,,,0.00,WUHU216HW,2013-09-17 12:18:00,
2013-09-17 06:21:00,54.7,42.0,29.68,NNW,338,5.8,5.8,62,0.00,,,0.00,WUHU216HW,2013-09-17 12:21:00,
2013-09-17 06:23:00,54.4,42.0,29.67,NNW,338,5.6,5.8,63,0.00,,,0.00,WUHU216HW,2013-09-17 12:23:00,
2013-09-17 06:26:00,54.2,41.9,29.67,NNW,338,6.0,6.0,63,0.00,,,0.00,WUHU216HW,2013-09-17 12:26:00,
2013-09-17 06:27:00,54.2,41.9,29.67,NW,315,5.8,6.0,63,0.00,,,0.00,WUHU216HW,2013-09-17 12:27:00,
2013-09-17 06:29:00,54.0,41.7,29.68,NNW,338,4.7,6.0,63,0.00,,,0.00,WUHU216HW,2013-09-17 12:29:00,
2013-09-17 06:31:00,54.0,42.0,29.67,NNW,338,5.4,6.0,64,0.00,,,0.00,WUHU216HW,2013-09-17 12:31:00,
2013-09-17 06:32:00,54.0,42.0,29.67,NNW,338,5.4,6.0,64,0.00,,,0.00,WUHU216HW,2013-09-17 12:32:00,
2013-09-17 06:34:00,54.0,41.7,29.67,NNW,338,5.6,6.0,63,0.00,,,0.00,WUHU216HW,2013-09-17 12:34:00,
2013-09-17 06:37:00,53.8,41.9,29.67,NW,315,6.0,6.3,64,0.00,,,0.00,WUHU216HW,2013-09-17 12:37:00,
2013-09-17 06:39:00,53.6,41.8,29.67,NW,315,6.3,6.5,64,0.00,,,0.00,WUHU216HW,2013-09-17 12:39:00,
2013-09-17 06:42:00,53.8,41.9,29.67,NW,315,5.8,6.5,64,0.00,,,0.00,WUHU216HW,2013-09-17 12:42:00,
2013-09-17 06:44:00,54.0,42.0,29.67,NW,315,5.1,6.5,64,0.00,,,0.00,WUHU216HW,2013-09-17 12:44:00,
2013-09-17 06:47:00,54.0,42.0,29.67,NW,315,5.8,6.5,64,0.00,,,0.00,WUHU216HW,2013-09-17 12:47:00,
2013-09-17 06:48:00,54.0,42.0,29.67,NW,315,5.1,6.3,64,0.00,,,0.00,WUHU216HW,2013-09-17 12:48:00,
2013-09-17 06:49:00,54.0,42.0,29.67,NW,315,4.3,6.3,64,0.00,,,0.00,WUHU216HW,2013-09-17 12:49:00,
2013-09-17 06:52:00,54.0,42.0,29.67,NW,315,4.7,5.8,64,0.00,,,0.00,WUHU216HW,2013-09-17 12:52:00,
2013-09-17 06:54:00,54.0,42.5,29.67,NW,315,5.4,5.8,65,0.00,,,0.00,WUHU216HW,2013-09-17 12:54:00,
2013-09-17 06:55:00,54.2,42.2,29.67,NW,315,4.7,5.8,64,0.00,,,0.00,WUHU216HW,2013-09-17 12:55:00,
2013-09-17 06:57:00,54.4,42.4,29.67,NW,315,4.7,5.6,64,0.00,,,0.00,WUHU216HW,2013-09-17 12:57:00,
2013-09-17 06:58:00,54.4,42.4,29.67,NW,315,4.3,5.6,64,0.00,,,0.00,WUHU216HW,2013-09-17 12:58:00,
2013-09-17 06:59:00,54.4,42.4,29.67,NW,315,6.0,6.0,64,0.00,,,0.00,WUHU216HW,2013-09-17 12:59:00,
2013-09-17 07:00:00,54.4,42.4,29.67,NW,315,6.0,6.0,64,0.00,,,0.00,WUHU216HW,2013-09-17 13:00:00,
2013-09-17 07:02:00,54.4,42.4,29.67,NW,315,6.3,6.3,64,0.00,,,0.00,WUHU216HW,2013-09-17 13:02:00,
2013-09-17 07:03:00,54.4,42.4,29.67,NW,315,6.3,6.3,64,0.00,,,0.00,WUHU216HW,2013-09-17 13:03:00,
2013-09-17 07:05:00,54.5,42.6,29.67,NW,315,6.3,6.3,64,0.00,,,0.00,WUHU216HW,2013-09-17 13:05:00,
2013-09-17 07:07:00,54.7,42.8,29.67,NW,315,6.0,6.3,64,0.00,,,0.00,WUHU216HW,2013-09-17 13:07:00,
2013-09-17 07:08:00,54.7,42.8,29.66,NNW,338,6.3,6.3,64,0.00,,,0.00,WUHU216HW,2013-09-17 13:08:00,
2013-09-17 07:10:00,54.9,42.5,29.66,NW,315,6.0,6.9,63,0.00,,,0.00,WUHU216HW,2013-09-17 13:10:00,
2013-09-17 07:12:00,55.1,42.7,29.67,NW,315,5.1,6.9,63,0.00,,,0.00,WUHU216HW,2013-09-17 13:12:00,
2013-09-17 07:13:00,55.1,42.7,29.67,NW,315,5.4,6.9,63,0.00,,,0.00,WUHU216HW,2013-09-17 13:13:00,
2013-09-17 07:15:00,55.1,42.7,29.66,NW,315,5.4,6.9,63,0.00,,,0.00,WUHU216HW,2013-09-17 13:15:00,
2013-09-17 07:18:00,55.3,42.9,29.67,NW,315,5.4,6.9,63,0.00,,,0.00,WUHU216HW,2013-09-17 13:18:00,
2013-09-17 07:20:00,55.3,42.9,29.67,NW,315,4.7,6.9,63,0.00,,,0.00,WUHU216HW,2013-09-17 13:20:00,
2013-09-17 07:23:00,55.1,42.7,29.67,WNW,293,3.4,6.9,63,0.00,,,0.00,WUHU216HW,2013-09-17 13:23:00,
2013-09-17 07:25:00,55.1,42.7,29.66,NW,315,4.9,6.9,63,0.00,,,0.00,WUHU216HW,2013-09-17 13:25:00,
2013-09-17 07:26:00,55.1,42.7,29.67,NW,315,5.8,6.0,63,0.00,,,0.00,WUHU216HW,2013-09-17 13:26:00,
2013-09-17 07:28:00,54.9,42.5,29.66,WNW,293,4.9,5.8,63,0.00,,,0.00,WUHU216HW,2013-09-17 13:28:00,
2013-09-17 07:30:00,54.9,42.9,29.66,NW,315,5.1,6.0,64,0.00,,,0.00,WUHU216HW,2013-09-17 13:30:00,
2013-09-17 07:31:00,55.1,43.1,29.66,NW,315,6.3,6.3,64,0.00,,,0.00,WUHU216HW,2013-09-17 13:31:00,
2013-09-17 07:33:00,55.1,42.7,29.66,NNW,338,6.0,6.3,63,0.00,,,0.00,WUHU216HW,2013-09-17 13:33:00,
2013-09-17 07:34:00,55.3,42.9,29.66,NW,315,5.1,6.3,63,0.00,,,0.00,WUHU216HW,2013-09-17 13:34:00,
2013-09-17 07:35:00,55.4,43.0,29.66,NW,315,5.1,6.3,63,0.00,,,0.00,WUHU216HW,2013-09-17 13:35:00,
2013-09-17 07:36:00,55.4,43.0,29.66,NW,315,5.4,6.3,63,0.00,,,0.00,WUHU216HW,2013-09-17 13:36:00,
2013-09-17 07:38:00,55.4,43.0,29.66,NW,315,4.9,6.3,63,0.00,,,0.00,WUHU216HW,2013-09-17 13:38:00,
2013-09-17 07:39:00,55.4,43.0,29.66,NW,315,5.1,6.3,63,0.00,,,0.00,WUHU216HW,2013-09-17 13:39:00,
2013-09-17 07:40:00,55.4,43.0,29.66,NW,315,6.3,6.3,63,0.00,,,0.00,WUHU216HW,2013-09-17 13:40:00,
2013-09-17 07:41:00,55.4,43.0,29.66,NW,315,6.3,6.3,63,0.00,,,0.00,WUHU216HW,2013-09-17 13:41:00,
2013-09-17 07:42:00,55.4,43.0,29.66,NW,315,6.0,6.3,63,0.00,,,0.00,WUHU216HW,2013-09-17 13:42:00,
2013-09-17 07:43:00,55.4,43.0,29.66,NW,315,6.3,6.3,63,0.00,,,0.00,WUHU216HW,2013-09-17 13:43:00,
2013-09-17 07:45:00,55.4,43.0,29.66,NW,315,5.6,6.3,63,0.00,,,0.00,WUHU216HW,2013-09-17 13:45:00,
2013-09-17 07:46:00,55.6,43.2,29.66,NNW,338,6.0,6.5,63,0.00,,,0.00,WUHU216HW,2013-09-17 13:46:00,
2013-09-17 07:47:00,55.4,43.0,29.66,NW,315,6.9,6.9,63,0.00,,,0.00,WUHU216HW,2013-09-17 13:47:00,
2013-09-17 07:48:00,55.4,43.0,29.66,NW,315,5.4,6.9,63,0.00,,,0.00,WUHU216HW,2013-09-17 13:48:00,
2013-09-17 07:50:00,55.4,43.0,29.66,NW,315,5.8,6.9,63,0.00,,,0.00,WUHU216HW,2013-09-17 13:50:00,
2013-09-17 07:51:00,55.4,43.4,29.66,WNW,293,6.3,6.9,64,0.00,,,0.00,WUHU216HW,2013-09-17 13:51:00,
2013-09-17 07:52:00,55.4,43.4,29.66,NW,315,7.6,7.6,64,0.00,,,0.00,WUHU216HW,2013-09-17 13:52:00,
2013-09-17 07:54:00,55.4,43.4,29.66,NNW,338,7.6,8.7,64,0.00,,,0.00,WUHU216HW,2013-09-17 13:54:00,
2013-09-17 07:55:00,55.6,43.6,29.66,NNW,338,7.6,8.7,64,0.00,,,0.00,WUHU216HW,2013-09-17 13:55:00,
2013-09-17 07:56:00,55.8,43.4,29.66,NW,315,6.5,8.7,63,0.00,,,0.00,WUHU216HW,2013-09-17 13:56:00,
2013-09-17 07:57:00,55.8,43.4,29.66,NNW,338,7.2,8.7,63,0.00,,,0.00,WUHU216HW,2013-09-17 13:57:00,
2013-09-17 07:58:00,55.8,43.4,29.66,NW,315,6.5,8.7,63,0.00,,,0.00,WUHU216HW,2013-09-17 13:58:00,
2013-09-17 07:59:00,55.8,43.4,29.66,NW,315,5.4,8.7,63,0.00,,,0.00,WUHU216HW,2013-09-17 13:59:00,
2013-09-17 08:00:00,55.8,43.4,29.66,NNW,338,6.0,8.7,63,0.00,,,0.00,WUHU216HW,2013-09-17 14:00:00,
2013-09-17 08:01:00,55.8,43.4,29.66,NW,315,5.4,8.7,63,0.00,,,0.00,WUHU216HW,2013-09-17 14:01:00,
2013-09-17 08:02:00,55.8,43.4,29.66,NW,315,4.7,8.7,63,0.00,,,0.00,WUHU216HW,2013-09-17 14:02:00,
2013-09-17 08:03:00,55.8,43.4,29.66,NW,315,5.4,8.7,63,0.00,,,0.00,WUHU216HW,2013-09-17 14:03:00,
2013-09-17 08:04:00,55.8,43.4,29.66,NW,315,6.5,7.6,63,0.00,,,0.00,WUHU216HW,2013-09-17 14:04:00,
2013-09-17 08:05:00,55.8,43.4,29.66,NW,315,6.5,7.6,63,0.00,,,0.00,WUHU216HW,2013-09-17 14:05:00,
2013-09-17 08:07:00,55.8,43.4,29.66,NNW,338,7.2,7.2,63,0.00,,,0.00,WUHU216HW,2013-09-17 14:07:00,
2013-09-17 08:08:00,55.8,43.4,29.66,North,0,5.8,7.2,63,0.00,,,0.00,WUHU216HW,2013-09-17 14:08:00,
2013-09-17 08:09:00,55.8,42.9,29.66,NNW,338,6.5,7.2,62,0.00,,,0.00,WUHU216HW,2013-09-17 14:09:00,
2013-09-17 08:10:00,56.0,43.1,29.66,NNW,338,6.5,7.2,62,0.00,,,0.00,WUHU216HW,2013-09-17 14:10:00,
2013-09-17 08:12:00,55.8,43.4,29.66,NW,315,5.8,7.2,63,0.00,,,0.00,WUHU216HW,2013-09-17 14:12:00,
2013-09-17 08:13:00,56.0,43.6,29.66,NW,315,5.4,7.2,63,0.00,,,0.00,WUHU216HW,2013-09-17 14:13:00,
2013-09-17 08:14:00,56.0,43.6,29.66,NW,315,6.3,7.2,63,0.00,,,0.00,WUHU216HW,2013-09-17 14:14:00,
2013-09-17 08:15:00,56.2,43.8,29.66,NNW,338,5.4,7.2,63,0.00,,,0.00,WUHU216HW,2013-09-17 14:15:00,
2013-09-17 08:17:00,56.3,43.9,29.67,NNW,338,2.2,6.9,63,0.00,,,0.00,WUHU216HW,2013-09-17 14:17:00,
2013-09-17 08:18:00,56.3,43.9,29.67,NNW,338,2.2,6.9,63,0.00,,,0.00,WUHU216HW,2013-09-17 14:18:00,
2013-09-17 08:19:00,56.3,43.9,29.66,North,0,3.4,6.9,63,0.00,,,0.00,WUHU216HW,2013-09-17 14:19:00,
2013-09-17 08:20:00,56.3,43.9,29.67,NNW,338,3.4,6.9,63,0.00,,,0.00,WUHU216HW,2013-09-17 14:20:00,
2013-09-17 08:23:00,56.2,43.8,29.66,North,0,4.3,6.3,63,0.00,,,0.00,WUHU216HW,2013-09-17 14:23:00,
2013-09-17 08:24:00,56.2,43.8,29.66,North,0,3.6,5.8,63,0.00,,,0.00,WUHU216HW,2013-09-17 14:24:00,
2013-09-17 08:25:00,56.2,43.8,29.66,North,0,4.0,5.4,63,0.00,,,0.00,WUHU216HW,2013-09-17 14:25:00,
2013-09-17 08:28:00,56.2,43.8,29.66,NNW,338,4.5,5.4,63,0.00,,,0.00,WUHU216HW,2013-09-17 14:28:00,
2013-09-17 08:29:00,56.2,43.8,29.66,NNW,338,4.7,5.6,63,0.00,,,0.00,WUHU216HW,2013-09-17 14:29:00,
2013-09-17 08:30:00,56.2,43.8,29.66,NNW,338,4.7,5.6,63,0.00,,,0.00,WUHU216HW,2013-09-17 14:30:00,
2013-09-17 08:33:00,56.2,43.8,29.66,NNW,338,5.6,5.6,63,0.00,,,0.00,WUHU216HW,2013-09-17 14:33:00,
2013-09-17 08:35:00,56.2,43.3,29.66,NNW,338,3.6,5.6,62,0.00,,,0.00,WUHU216HW,2013-09-17 14:35:00,
2013-09-17 08:38:00,56.3,43.0,29.66,NNW,338,6.3,7.2,61,0.00,,,0.00,WUHU216HW,2013-09-17 14:38:00,
2013-09-17 08:39:00,56.3,43.0,29.66,NNW,338,6.0,7.2,61,0.00,,,0.00,WUHU216HW,2013-09-17 14:39:00,
2013-09-17 08:40:00,56.3,43.5,29.66,NNW,338,6.3,7.2,62,0.00,,,0.00,WUHU216HW,2013-09-17 14:40:00,
2013-09-17 08:43:00,56.2,43.3,29.66,NNW,338,5.1,7.2,62,0.00,,,0.00,WUHU216HW,2013-09-17 14:43:00,
2013-09-17 08:44:00,56.2,43.3,29.66,NNW,338,1.6,7.2,62,0.00,,,0.00,WUHU216HW,2013-09-17 14:44:00,
2013-09-17 08:45:00,56.2,43.3,29.66,NNW,338,1.1,7.2,62,0.00,,,0.00,WUHU216HW,2013-09-17 14:45:00,
2013-09-17 08:46:00,56.2,43.3,29.66,NNW,338,3.4,7.2,62,0.00,,,0.00,WUHU216HW,2013-09-17 14:46:00,
2013-09-17 08:48:00,56.2,43.3,29.67,NNW,338,2.5,6.7,62,0.00,,,0.00,WUHU216HW,2013-09-17 14:48:00,
2013-09-17 08:49:00,56.2,43.3,29.67,NW,315,2.9,6.5,62,0.00,,,0.00,WUHU216HW,2013-09-17 14:49:00,
2013-09-17 08:50:00,56.2,43.3,29.67,NW,315,1.1,6.5,62,0.00,,,0.00,WUHU216HW,2013-09-17 14:50:00,
2013-09-17 08:51:00,56.2,43.3,29.67,WSW,248,2.0,6.3,62,0.00,,,0.00,WUHU216HW,2013-09-17 14:51:00,
2013-09-17 08:53:00,56.2,43.3,29.67,West,270,1.3,5.1,62,0.00,,,0.00,WUHU216HW,2013-09-17 14:53:00,
2013-09-17 08:54:00,56.2,43.3,29.67,NW,315,1.3,3.6,62,0.00,,,0.00,WUHU216HW,2013-09-17 14:54:00,
2013-09-17 08:55:00,56.2,43.3,29.67,NW,315,0.2,3.6,62,0.00,,,0.00,WUHU216HW,2013-09-17 14:55:00,
2013-09-17 08:56:00,56.2,43.3,29.67,NW,315,1.1,3.6,62,0.00,,,0.00,WUHU216HW,2013-09-17 14:56:00,
2013-09-17 08:58:00,56.2,42.9,29.67,SW,225,0.4,3.6,61,0.00,,,0.00,WUHU216HW,2013-09-17 14:58:00,
2013-09-17 09:00:00,56.3,43.0,29.67,SW,225,1.8,2.5,61,0.00,,,0.00,WUHU216HW,2013-09-17 15:00:00,
2013-09-17 09:01:00,56.2,42.9,29.67,SSW,203,1.3,2.5,61,0.00,,,0.00,WUHU216HW,2013-09-17 15:01:00,
2013-09-17 09:03:00,56.3,43.0,29.67,South,180,0.4,2.2,61,0.00,,,0.00,WUHU216HW,2013-09-17 15:03:00,
2013-09-17 09:05:00,56.3,43.0,29.67,SSE,158,1.3,1.8,61,0.00,,,0.00,WUHU216HW,2013-09-17 15:05:00,
2013-09-17 09:06:00,56.3,43.0,29.67,SSE,158,0.4,1.8,61,0.00,,,0.00,WUHU216HW,2013-09-17 15:06:00,
2013-09-17 09:09:00,56.5,43.2,29.67,SSE,158,0.0,1.8,61,0.00,,,0.00,WUHU216HW,2013-09-17 15:09:00,
2013-09-17 09:10:00,56.5,43.2,29.67,SSE,158,0.2,1.8,61,0.00,,,0.00,WUHU216HW,2013-09-17 15:10:00,
2013-09-17 09:11:00,56.5,43.2,29.67,SSW,203,1.1,1.6,61,0.00,,,0.00,WUHU216HW,2013-09-17 15:11:00,
2013-09-17 09:14:00,56.5,43.2,29.67,SSW,203,0.4,1.6,61,0.00,,,0.00,WUHU216HW,2013-09-17 15:14:00,
2013-09-17 09:16:00,56.5,43.2,29.67,SE,135,1.3,1.3,61,0.00,,,0.00,WUHU216HW,2013-09-17 15:16:00,
2013-09-17 09:17:00,56.5,43.2,29.68,SE,135,0.9,2.2,61,0.00,,,0.00,WUHU216HW,2013-09-17 15:17:00,
2013-09-17 09:19:00,56.5,43.2,29.68,ESE,113,2.2,2.5,61,0.00,,,0.00,WUHU216HW,2013-09-17 15:19:00,
2013-09-17 09:21:00,56.7,43.4,29.69,SE,135,7.4,7.4,61,0.00,,,0.00,WUHU216HW,2013-09-17 15:21:00,
2013-09-17 09:22:00,56.7,43.4,29.69,SE,135,6.0,8.5,61,0.00,,,0.00,WUHU216HW,2013-09-17 15:22:00,
2013-09-17 09:24:00,56.7,43.8,29.69,SSE,158,7.6,8.5,62,0.00,,,0.00,WUHU216HW,2013-09-17 15:24:00,
2013-09-17 09:26:00,56.7,43.8,29.69,SE,135,7.8,11.6,62,0.00,,,0.00,WUHU216HW,2013-09-17 15:26:00,
2013-09-17 09:27:00,56.7,43.8,29.69,South,180,10.5,11.6,62,0.00,,,0.00,WUHU216HW,2013-09-17 15:27:00,
2013-09-17 09:29:00,56.7,44.2,29.69,South,180,14.3,14.3,63,0.00,,,0.00,WUHU216HW,2013-09-17 15:29:00,
2013-09-17 09:31:00,56.7,44.2,29.69,SSE,158,10.7,16.3,63,0.00,,,0.00,WUHU216HW,2013-09-17 15:31:00,
2013-09-17 09:32:00,56.7,44.2,29.69,SE,135,6.3,16.3,63,0.00,,,0.00,WUHU216HW,2013-09-17 15:32:00,
2013-09-17 09:33:00,56.7,44.2,29.69,SE,135,6.3,16.3,63,0.00,,,0.00,WUHU216HW,2013-09-17 15:33:00,
2013-09-17 09:34:00,56.7,44.2,29.69,SE,135,10.1,16.3,63,0.00,,,0.00,WUHU216HW,2013-09-17 15:34:00,
2013-09-17 09:36:00,56.7,44.2,29.69,SE,135,9.8,16.3,63,0.00,,,0.00,WUHU216HW,2013-09-17 15:36:00,
2013-09-17 09:37:00,56.9,44.4,29.69,SE,135,7.2,16.3,63,0.00,,,0.00,WUHU216HW,2013-09-17 15:37:00,
2013-09-17 09:38:00,56.9,44.4,29.69,SSE,158,8.5,16.3,63,0.00,,,0.00,WUHU216HW,2013-09-17 15:38:00,
2013-09-17 09:39:00,56.9,44.4,29.69,SSE,158,9.2,16.3,63,0.00,,,0.00,WUHU216HW,2013-09-17 15:39:00,
2013-09-17 09:41:00,56.9,44.4,29.69,SE,135,8.5,12.3,63,0.00,,,0.00,WUHU216HW,2013-09-17 15:41:00,
2013-09-17 09:42:00,56.9,44.0,29.69,SSE,158,6.3,12.3,62,0.00,,,0.00,WUHU216HW,2013-09-17 15:42:00,
2013-09-17 09:43:00,56.9,44.4,29.69,SE,135,5.6,12.3,63,0.00,,,0.00,WUHU216HW,2013-09-17 15:43:00,
2013-09-17 09:44:00,57.1,44.2,29.69,SSE,158,5.4,12.3,62,0.00,,,0.00,WUHU216HW,2013-09-17 15:44:00,
2013-09-17 09:46:00,57.1,44.2,29.69,SE,135,6.9,9.2,62,0.00,,,0.00,WUHU216HW,2013-09-17 15:46:00,
2013-09-17 09:47:00,57.1,44.2,29.69,SE,135,7.4,9.2,62,0.00,,,0.00,WUHU216HW,2013-09-17 15:47:00,
2013-09-17 09:48:00,57.1,44.2,29.69,SE,135,7.4,9.2,62,0.00,,,0.00,WUHU216HW,2013-09-17 15:48:00,
2013-09-17 09:49:00,57.1,44.2,29.69,SE,135,7.6,9.2,62,0.00,,,0.00,WUHU216HW,2013-09-17 15:49:00,
2013-09-17 09:51:00,57.1,44.2,29.69,SE,135,6.7,8.7,62,0.00,,,0.00,WUHU216HW,2013-09-17 15:51:00,
2013-09-17 09:52:00,57.1,44.2,29.69,SE,135,6.7,8.7,62,0.00,,,0.00,WUHU216HW,2013-09-17 15:52:00,
2013-09-17 09:53:00,57.2,44.4,29.69,ESE,113,6.9,8.7,62,0.00,,,0.00,WUHU216HW,2013-09-17 15:53:00,
2013-09-17 09:54:00,57.2,44.4,29.69,SE,135,7.6,8.7,62,0.00,,,0.00,WUHU216HW,2013-09-17 15:54:00,
2013-09-17 09:56:00,57.2,44.4,29.69,SE,135,6.3,8.7,62,0.00,,,0.00,WUHU216HW,2013-09-17 15:56:00,
2013-09-17 09:57:00,57.2,44.4,29.69,SE,135,6.3,8.7,62,0.00,,,0.00,WUHU216HW,2013-09-17 15:57:00,
2013-09-17 09:59:00,57.2,44.4,29.69,SE,135,7.6,8.7,62,0.00,,,0.00,WUHU216HW,2013-09-17 15:59:00,
2013-09-17 10:02:00,57.2,44.4,29.69,SE,135,6.9,9.2,62,0.00,,,0.00,WUHU216HW,2013-09-17 16:02:00,
2013-09-17 10:03:00,57.2,44.4,29.69,SE,135,8.1,9.2,62,0.00,,,0.00,WUHU216HW,2013-09-17 16:03:00,
2013-09-17 10:04:00,57.2,44.4,29.69,SE,135,6.5,9.2,62,0.00,,,0.00,WUHU216HW,2013-09-17 16:04:00,
2013-09-17 10:07:00,57.2,44.4,29.69,SE,135,7.8,9.2,62,0.00,,,0.00,WUHU216HW,2013-09-17 16:07:00,
2013-09-17 10:08:00,57.4,44.6,29.69,SE,135,8.3,9.2,62,0.00,,,0.00,WUHU216HW,2013-09-17 16:08:00,
2013-09-17 10:09:00,57.2,44.4,29.69,ESE,113,6.9,9.2,62,0.00,,,0.00,WUHU216HW,2013-09-17 16:09:00,
2013-09-17 10:12:00,57.4,44.9,29.69,ESE,113,6.5,8.5,63,0.00,,,0.00,WUHU216HW,2013-09-17 16:12:00,
2013-09-17 10:13:00,57.2,44.4,29.69,SE,135,4.9,8.5,62,0.00,,,0.00,WUHU216HW,2013-09-17 16:13:00,
2013-09-17 10:14:00,57.2,44.7,29.69,SE,135,8.3,8.9,63,0.00,,,0.00,WUHU216HW,2013-09-17 16:14:00,
2013-09-17 10:17:00,57.1,44.6,29.69,SE,135,6.0,8.9,63,0.00,,,0.00,WUHU216HW,2013-09-17 16:17:00,
2013-09-17 10:19:00,56.9,44.4,29.69,SE,135,7.2,8.9,63,0.00,,,0.00,WUHU216HW,2013-09-17 16:19:00,
2013-09-17 10:20:00,56.9,44.4,29.69,SE,135,8.1,8.9,63,0.00,,,0.00,WUHU216HW,2013-09-17 16:20:00,
2013-09-17 10:22:00,56.7,44.7,29.69,ESE,113,4.0,8.9,64,0.00,,,0.00,WUHU216HW,2013-09-17 16:22:00,
2013-09-17 10:24:00,56.5,44.5,29.69,SE,135,6.7,8.5,64,0.00,,,0.00,WUHU216HW,2013-09-17 16:24:00,
2013-09-17 10:25:00,56.5,44.5,29.69,SSE,158,4.0,8.5,64,0.00,,,0.00,WUHU216HW,2013-09-17 16:25:00,
2013-09-17 10:26:00,56.5,44.5,29.69,SSE,158,4.0,8.5,64,0.00,,,0.00,WUHU216HW,2013-09-17 16:26:00,
2013-09-17 10:27:00,56.5,44.5,29.69,SE,135,3.6,8.5,64,0.00,,,0.00,WUHU216HW,2013-09-17 16:27:00,
2013-09-17 10:30:00,56.5,44.5,29.69,South,180,6.3,8.3,64,0.00,,,0.00,WUHU216HW,2013-09-17 16:30:00,
2013-09-17 10:31:00,56.5,44.5,29.69,SSE,158,4.3,8.3,64,0.00,,,0.00,WUHU216HW,2013-09-17 16:31:00,
2013-09-17 10:33:00,56.5,44.5,29.69,South,180,5.1,7.6,64,0.00,,,0.00,WUHU216HW,2013-09-17 16:33:00,
2013-09-17 10:35:00,56.7,44.7,29.69,SSE,158,3.1,6.3,64,0.00,,,0.00,WUHU216HW,2013-09-17 16:35:00,
2013-09-17 10:36:00,56.7,44.7,29.69,SSE,158,2.2,6.3,64,0.00,,,0.00,WUHU216HW,2013-09-17 16:36:00,
2013-09-17 10:38:00,56.7,44.7,29.69,South,180,2.9,6.3,64,0.00,,,0.00,WUHU216HW,2013-09-17 16:38:00,
2013-09-17 10:40:00,56.9,44.8,29.69,South,180,0.4,6.0,64,0.00,,,0.00,WUHU216HW,2013-09-17 16:40:00,
2013-09-17 10:41:00,56.9,44.4,29.69,SSW,203,0.2,6.0,63,0.00,,,0.00,WUHU216HW,2013-09-17 16:41:00,
2013-09-17 10:43:00,56.9,44.8,29.69,SE,135,0.7,5.4,64,0.00,,,0.00,WUHU216HW,2013-09-17 16:43:00,
2013-09-17 10:45:00,57.2,44.7,29.69,SSE,158,1.6,2.9,63,0.00,,,0.00,WUHU216HW,2013-09-17 16:45:00,
2013-09-17 10:46:00,57.1,44.6,29.69,SSE,158,2.5,2.9,63,0.00,,,0.00,WUHU216HW,2013-09-17 16:46:00,
2013-09-17 10:48:00,57.2,44.7,29.69,South,180,1.3,2.5,63,0.00,,,0.00,WUHU216HW,2013-09-17 16:48:00,
2013-09-17 10:50:00,57.2,44.7,29.69,SSE,158,2.0,2.5,63,0.00,,,0.00,WUHU216HW,2013-09-17 16:50:00,
2013-09-17 10:51:00,57.2,44.7,29.69,SSE,158,2.0,2.5,63,0.00,,,0.00,WUHU216HW,2013-09-17 16:51:00,
2013-09-17 10:52:00,57.2,44.7,29.69,SSE,158,4.0,4.0,63,0.00,,,0.00,WUHU216HW,2013-09-17 16:52:00,
2013-09-17 10:53:00,57.2,45.2,29.69,SSE,158,4.7,5.4,64,0.00,,,0.00,WUHU216HW,2013-09-17 16:53:00,
2013-09-17 10:55:00,57.4,45.3,29.69,SE,135,5.6,5.6,64,0.00,,,0.00,WUHU216HW,2013-09-17 16:55:00,
2013-09-17 10:56:00,57.4,45.3,29.69,SSE,158,6.9,6.9,64,0.00,,,0.00,WUHU216HW,2013-09-17 16:56:00,
2013-09-17 10:57:00,57.4,45.3,29.69,SE,135,6.3,7.6,64,0.00,,,0.00,WUHU216HW,2013-09-17 16:57:00,
2013-09-17 10:58:00,57.4,45.3,29.69,SE,135,8.3,8.3,64,0.00,,,0.00,WUHU216HW,2013-09-17 16:58:00,
2013-09-17 11:00:00,57.6,45.5,29.70,ESE,113,5.6,8.3,64,0.00,,,0.00,WUHU216HW,2013-09-17 17:00:00,
2013-09-17 11:01:00,57.6,45.5,29.70,ESE,113,3.4,8.3,64,0.00,,,0.00,WUHU216HW,2013-09-17 17:01:00,
2013-09-17 11:02:00,57.4,45.3,29.70,ESE,113,3.8,8.3,64,0.00,,,0.00,WUHU216HW,2013-09-17 17:02:00,
2013-09-17 11:03:00,57.4,45.3,29.70,SE,135,5.6,8.3,64,0.00,,,0.00,WUHU216HW,2013-09-17 17:03:00,
2013-09-17 11:05:00,57.2,45.2,29.70,SE,135,6.3,8.3,64,0.00,,,0.00,WUHU216HW,2013-09-17 17:05:00,
2013-09-17 11:06:00,57.2,45.2,29.70,SE,135,8.5,8.5,64,0.00,,,0.00,WUHU216HW,2013-09-17 17:06:00,
2013-09-17 11:08:00,57.2,45.5,29.70,SSE,158,7.6,8.5,65,0.00,,,0.00,WUHU216HW,2013-09-17 17:08:00,
2013-09-17 11:10:00,56.9,46.0,29.70,SSE,158,6.5,8.5,67,0.00,,,0.00,WUHU216HW,2013-09-17 17:10:00,
2013-09-17 11:11:00,56.9,45.6,29.70,SSE,158,5.4,8.5,66,0.00,,,0.00,WUHU216HW,2013-09-17 17:11:00,
2013-09-17 11:12:00,56.9,45.6,29.70,SSE,158,5.8,8.5,66,0.00,,,0.00,WUHU216HW,2013-09-17 17:12:00,
2013-09-17 11:13:00,56.9,45.6,29.70,SSE,158,4.7,8.5,66,0.00,,,0.00,WUHU216HW,2013-09-17 17:13:00,
2013-09-17 11:15:00,56.9,46.0,29.70,SE,135,6.3,8.5,67,0.00,,,0.00,WUHU216HW,2013-09-17 17:15:00,
2013-09-17 11:17:00,56.7,46.3,29.70,SE,135,6.9,8.3,68,0.00,,,0.00,WUHU216HW,2013-09-17 17:17:00,
2013-09-17 11:18:00,56.7,46.3,29.69,SE,135,6.9,8.3,68,0.00,,,0.00,WUHU216HW,2013-09-17 17:18:00,
2013-09-17 11:20:00,56.5,47.3,29.69,ESE,113,8.5,8.9,71,0.01,,,0.01,WUHU216HW,2013-09-17 17:20:00,
2013-09-17 11:22:00,56.5,47.3,29.68,ESE,113,6.3,8.9,71,0.01,,,0.01,WUHU216HW,2013-09-17 17:22:00,
2013-09-17 11:23:00,56.3,47.1,29.67,East,90,6.3,8.9,71,0.01,,,0.01,WUHU216HW,2013-09-17 17:23:00,
2013-09-17 11:25:00,56.2,47.6,29.66,ESE,113,9.2,9.2,73,0.01,,,0.01,WUHU216HW,2013-09-17 17:25:00,
2013-09-17 11:27:00,56.0,47.8,29.65,East,90,7.6,9.2,74,0.01,,,0.01,WUHU216HW,2013-09-17 17:27:00,
2013-09-17 11:29:00,55.8,48.0,29.65,SE,135,7.8,9.2,75,0.01,,,0.01,WUHU216HW,2013-09-17 17:29:00,
2013-09-17 11:31:00,55.4,47.6,29.66,SSE,158,7.8,10.3,75,0.02,,,0.02,WUHU216HW,2013-09-17 17:31:00,
2013-09-17 11:32:00,55.4,47.6,29.66,SSE,158,6.5,10.3,75,0.02,,,0.02,WUHU216HW,2013-09-17 17:32:00,
2013-09-17 11:34:00,55.3,47.8,29.66,SSE,158,7.6,10.3,76,0.02,,,0.02,WUHU216HW,2013-09-17 17:34:00,
2013-09-17 11:36:00,55.3,48.2,29.67,South,180,9.8,10.3,77,0.02,,,0.02,WUHU216HW,2013-09-17 17:36:00,
2013-09-17 11:37:00,55.3,48.2,29.67,SSW,203,9.6,11.2,77,0.02,,,0.02,WUHU216HW,2013-09-17 17:37:00,
2013-09-17 11:38:00,55.3,48.5,29.67,SSE,158,9.6,11.2,78,0.02,,,0.02,WUHU216HW,2013-09-17 17:38:00,
2013-09-17 11:39:00,55.4,49.0,29.67,South,180,9.6,11.2,79,0.02,,,0.02,WUHU216HW,2013-09-17 17:39:00,
2013-09-17 11:40:00,55.4,49.0,29.67,SSE,158,8.7,11.2,79,0.02,,,0.02,WUHU216HW,2013-09-17 17:40:00,
2013-09-17 11:41:00,55.4,49.0,29.67,SSE,158,10.5,11.2,79,0.02,,,0.02,WUHU216HW,2013-09-17 17:41:00,
2013-09-17 11:42:00,55.6,49.1,29.67,SSE,158,9.2,11.2,79,0.02,,,0.02,WUHU216HW,2013-09-17 17:42:00,
2013-09-17 11:43:00,55.8,49.0,29.67,SSE,158,8.3,11.2,78,0.02,,,0.02,WUHU216HW,2013-09-17 17:43:00,
2013-09-17 11:44:00,55.8,49.3,29.66,SE,135,9.6,11.2,79,0.02,,,0.02,WUHU216HW,2013-09-17 17:44:00,
2013-09-17 11:46:00,55.8,49.3,29.66,SE,135,11.9,13.4,79,0.02,,,0.02,WUHU216HW,2013-09-17 17:46:00,
2013-09-17 11:47:00,56.2,50.4,29.66,SSE,158,8.7,13.4,81,0.02,,,0.02,WUHU216HW,2013-09-17 17:47:00,
2013-09-17 11:48:00,56.2,50.0,29.66,SE,135,11.4,13.4,80,0.02,,,0.02,WUHU216HW,2013-09-17 17:48:00,
2013-09-17 11:49:00,56.2,50.4,29.66,SSE,158,11.4,13.4,81,0.02,,,0.02,WUHU216HW,2013-09-17 17:49:00,
2013-09-17 11:51:00,56.5,50.8,29.65,South,180,8.1,13.4,81,0.02,,,0.02,WUHU216HW,2013-09-17 17:51:00,
2013-09-17 11:52:00,56.5,50.8,29.65,SE,135,8.1,13.4,81,0.02,,,0.02,WUHU216HW,2013-09-17 17:52:00,
2013-09-17 11:53:00,56.7,51.0,29.65,SSE,158,9.8,13.4,81,0.02,,,0.02,WUHU216HW,2013-09-17 17:53:00,
2013-09-17 11:54:00,56.7,51.0,29.65,SSE,158,12.5,13.4,81,0.02,,,0.02,WUHU216HW,2013-09-17 17:54:00,
2013-09-17 11:56:00,56.9,50.8,29.65,SE,135,10.7,13.4,80,0.02,,,0.02,WUHU216HW,2013-09-17 17:56:00,
2013-09-17 11:57:00,56.9,50.8,29.65,South,180,12.5,13.4,80,0.02,,,0.02,WUHU216HW,2013-09-17 17:57:00,
2013-09-17 11:58:00,56.9,50.8,29.65,South,180,10.1,13.4,80,0.02,,,0.02,WUHU216HW,2013-09-17 17:58:00,
2013-09-17 11:59:00,57.1,50.6,29.65,SSE,158,11.4,13.4,79,0.02,,,0.02,WUHU216HW,2013-09-17 17:59:00,
2013-09-17 12:01:00,57.1,50.6,29.65,South,180,10.1,13.4,79,0.02,,,0.02,WUHU216HW,2013-09-17 18:01:00,
2013-09-17 12:02:00,57.2,50.8,29.65,SSE,158,12.1,13.4,79,0.02,,,0.02,WUHU216HW,2013-09-17 18:02:00,
2013-09-17 12:03:00,57.2,50.8,29.65,SE,135,9.2,13.4,79,0.02,,,0.02,WUHU216HW,2013-09-17 18:03:00,
2013-09-17 12:04:00,57.2,50.8,29.65,SSE,158,11.4,13.4,79,0.02,,,0.02,WUHU216HW,2013-09-17 18:04:00,
2013-09-17 12:06:00,57.2,50.4,29.65,SSE,158,11.6,13.9,78,0.02,,,0.02,WUHU216HW,2013-09-17 18:06:00,
2013-09-17 12:07:00,57.4,50.9,29.65,SSE,158,12.8,13.9,79,0.02,,,0.02,WUHU216HW,2013-09-17 18:07:00,
2013-09-17 12:08:00,57.4,50.9,29.65,SSE,158,11.4,13.9,79,0.02,,,0.02,WUHU216HW,2013-09-17 18:08:00,
2013-09-17 12:09:00,57.4,50.6,29.65,SSE,158,10.3,13.9,78,0.02,,,0.02,WUHU216HW,2013-09-17 18:09:00,
2013-09-17 12:11:00,57.6,50.4,29.65,SSE,158,8.9,13.9,77,0.02,,,0.02,WUHU216HW,2013-09-17 18:11:00,
2013-09-17 12:12:00,57.6,50.4,29.65,SSE,158,7.8,13.9,77,0.02,,,0.02,WUHU216HW,2013-09-17 18:12:00,
2013-09-17 12:13:00,57.6,50.4,29.65,SSE,158,12.1,13.9,77,0.02,,,0.02,WUHU216HW,2013-09-17 18:13:00,
2013-09-17 12:14:00,57.8,50.6,29.65,SSE,158,12.1,13.9,77,0.02,,,0.02,WUHU216HW,2013-09-17 18:14:00,
2013-09-17 12:16:00,57.8,50.6,29.65,SSE,158,11.4,12.8,77,0.02,,,0.02,WUHU216HW,2013-09-17 18:16:00,
2013-09-17 12:17:00,57.8,50.6,29.66,SSE,158,8.9,12.8,77,0.02,,,0.02,WUHU216HW,2013-09-17 18:17:00,
2013-09-17 12:18:00,57.8,50.2,29.65,SSE,158,13.0,14.3,76,0.01,,,0.02,WUHU216HW,2013-09-17 18:18:00,
2013-09-17 12:19:00,57.8,50.6,29.65,SSE,158,13.0,14.3,77,0.01,,,0.02,WUHU216HW,2013-09-17 18:19:00,
2013-09-17 12:21:00,57.6,50.8,29.65,SE,135,10.7,14.3,78,0.01,,,0.02,WUHU216HW,2013-09-17 18:21:00,
2013-09-17 12:23:00,57.6,51.1,29.65,SSE,158,12.3,14.3,79,0.01,,,0.02,WUHU216HW,2013-09-17 18:23:00,
2013-09-17 12:24:00,57.6,51.1,29.65,SE,135,11.0,14.3,79,0.01,,,0.02,WUHU216HW,2013-09-17 18:24:00,
2013-09-17 12:25:00,57.6,50.8,29.65,SSE,158,12.8,14.3,78,0.01,,,0.02,WUHU216HW,2013-09-17 18:25:00,
2013-09-17 12:26:00,57.6,50.8,29.65,SE,135,13.9,14.3,78,0.00,,,0.02,WUHU216HW,2013-09-17 18:26:00,
2013-09-17 12:29:00,57.4,50.6,29.65,SSE,158,12.3,13.9,78,0.00,,,0.02,WUHU216HW,2013-09-17 18:29:00,
2013-09-17 12:30:00,57.4,50.6,29.65,SE,135,9.6,13.9,78,0.00,,,0.02,WUHU216HW,2013-09-17 18:30:00,
2013-09-17 12:31:00,57.4,50.6,29.65,SSE,158,10.5,13.9,78,0.00,,,0.02,WUHU216HW,2013-09-17 18:31:00,
2013-09-17 12:34:00,57.4,50.6,29.66,SSE,158,7.2,13.9,78,0.00,,,0.02,WUHU216HW,2013-09-17 18:34:00,
2013-09-17 12:35:00,57.4,50.6,29.65,SSE,158,10.3,13.9,78,0.00,,,0.02,WUHU216HW,2013-09-17 18:35:00,
2013-09-17 12:37:00,57.2,50.4,29.65,SSE,158,10.5,12.8,78,0.00,,,0.02,WUHU216HW,2013-09-17 18:37:00,
2013-09-17 12:39:00,57.2,50.4,29.66,SSE,158,15.9,15.9,78,0.00,,,0.02,WUHU216HW,2013-09-17 18:39:00,
2013-09-17 12:40:00,57.2,50.4,29.66,SSE,158,12.1,15.9,78,0.00,,,0.02,WUHU216HW,2013-09-17 18:40:00,
2013-09-17 12:42:00,56.9,49.7,29.66,SSE,158,9.8,15.9,77,0.00,,,0.02,WUHU216HW,2013-09-17 18:42:00,
2013-09-17 12:44:00,56.9,49.7,29.66,SE,135,7.8,15.9,77,0.00,,,0.02,WUHU216HW,2013-09-17 18:44:00,
2013-09-17 12:45:00,56.7,49.5,29.66,East,90,8.5,15.9,77,0.00,,,0.02,WUHU216HW,2013-09-17 18:45:00,
2013-09-17 12:47:00,56.5,49.3,29.66,SE,135,9.4,15.9,77,0.00,,,0.02,WUHU216HW,2013-09-17 18:47:00,
2013-09-17 12:49:00,56.5,49.3,29.66,ESE,113,7.6,15.9,77,0.00,,,0.02,WUHU216HW,2013-09-17 18:49:00,
2013-09-17 12:50:00,56.3,49.1,29.66,ESE,113,7.6,12.3,77,0.00,,,0.02,WUHU216HW,2013-09-17 18:50:00,
2013-09-17 12:52:00,56.5,49.7,29.67,ESE,113,8.5,12.3,78,0.00,,,0.02,WUHU216HW,2013-09-17 18:52:00,
2013-09-17 12:54:00,56.5,49.3,29.67,SE,135,5.4,12.3,77,0.00,,,0.02,WUHU216HW,2013-09-17 18:54:00,
2013-09-17 12:55:00,56.5,49.3,29.67,ESE,113,6.9,12.3,77,0.00,,,0.02,WUHU216HW,2013-09-17 18:55:00,
2013-09-17 12:56:00,56.5,49.3,29.67,ESE,113,7.6,12.3,77,0.00,,,0.02,WUHU216HW,2013-09-17 18:56:00,
2013-09-17 12:57:00,56.5,49.3,29.68,SE,135,5.6,9.4,77,0.00,,,0.02,WUHU216HW,2013-09-17 18:57:00,
2013-09-17 12:59:00,56.5,49.3,29.68,South,180,6.3,8.5,77,0.00,,,0.02,WUHU216HW,2013-09-17 18:59:00,
2013-09-17 13:00:00,56.5,49.0,29.68,SE,135,2.5,8.5,76,0.00,,,0.02,WUHU216HW,2013-09-17 19:00:00,
2013-09-17 13:01:00,56.7,49.1,29.68,SE,135,1.6,8.5,76,0.00,,,0.02,WUHU216HW,2013-09-17 19:01:00,
2013-09-17 13:02:00,56.7,49.1,29.68,South,180,0.7,8.5,76,0.00,,,0.02,WUHU216HW,2013-09-17 19:02:00,
2013-09-17 13:04:00,56.7,49.1,29.68,South,180,0.7,7.6,76,0.00,,,0.02,WUHU216HW,2013-09-17 19:04:00,
2013-09-17 13:06:00,57.2,49.0,29.68,NW,315,5.6,7.6,74,0.00,,,0.02,WUHU216HW,2013-09-17 19:06:00,
2013-09-17 13:07:00,57.6,50.0,29.68,NW,315,4.5,6.5,76,0.00,,,0.02,WUHU216HW,2013-09-17 19:07:00,
2013-09-17 13:09:00,57.6,50.0,29.68,NNW,338,5.6,6.3,76,0.00,,,0.02,WUHU216HW,2013-09-17 19:09:00,
2013-09-17 13:10:00,57.6,50.0,29.68,NNW,338,5.6,6.3,76,0.00,,,0.02,WUHU216HW,2013-09-17 19:10:00,
2013-09-17 13:11:00,57.6,50.0,29.68,NNW,338,4.9,5.6,76,0.00,,,0.02,WUHU216HW,2013-09-17 19:11:00,
2013-09-17 13:13:00,57.6,50.4,29.68,NNW,338,8.9,8.9,77,0.01,,,0.03,WUHU216HW,2013-09-17 19:13:00,
2013-09-17 13:14:00,57.6,50.8,29.68,NNW,338,8.9,8.9,78,0.01,,,0.03,WUHU216HW,2013-09-17 19:14:00,
2013-09-17 13:15:00,57.4,49.9,29.68,NNW,338,8.9,8.9,76,0.01,,,0.03,WUHU216HW,2013-09-17 19:15:00,
2013-09-17 13:16:00,57.4,49.5,29.68,NNW,338,8.9,8.9,75,0.01,,,0.03,WUHU216HW,2013-09-17 19:16:00,
2013-09-17 13:17:00,57.4,49.5,29.68,NNW,338,8.9,8.9,75,0.01,,,0.03,WUHU216HW,2013-09-17 19:17:00,
2013-09-17 13:18:00,57.4,49.5,29.68,NNW,338,8.9,8.9,75,0.01,,,0.03,WUHU216HW,2013-09-17 19:18:00,
2013-09-17 13:19:00,57.4,50.6,29.68,North,0,0.0,8.9,78,0.02,,,0.04,WUHU216HW,2013-09-17 19:19:00,
2013-09-17 13:20:00,57.4,50.6,29.68,North,0,0.0,8.9,78,0.02,,,0.04,WUHU216HW,2013-09-17 19:20:00,
2013-09-17 13:21:00,57.2,50.4,29.68,North,0,0.0,8.9,78,0.02,,,0.04,WUHU216HW,2013-09-17 19:21:00,
2013-09-17 13:22:00,57.2,50.0,29.68,North,0,0.0,8.9,77,0.02,,,0.04,WUHU216HW,2013-09-17 19:22:00,
2013-09-17 13:23:00,57.2,50.0,29.68,North,0,0.0,8.9,77,0.02,,,0.04,WUHU216HW,2013-09-17 19:23:00,
2013-09-17 13:25:00,57.4,50.2,29.68,North,0,0.0,8.9,77,0.03,,,0.05,WUHU216HW,2013-09-17 19:25:00,
2013-09-17 13:26:00,57.4,50.2,29.67,North,0,0.0,8.9,77,0.03,,,0.05,WUHU216HW,2013-09-17 19:26:00,
2013-09-17 13:27:00,57.4,50.9,29.66,NE,45,7.4,8.9,79,0.04,,,0.06,WUHU216HW,2013-09-17 19:27:00,
2013-09-17 13:28:00,57.4,51.3,29.66,NE,45,5.4,8.9,80,0.04,,,0.06,WUHU216HW,2013-09-17 19:28:00,
2013-09-17 13:30:00,57.2,51.5,29.66,NE,45,5.4,7.4,81,0.04,,,0.06,WUHU216HW,2013-09-17 19:30:00,
2013-09-17 13:31:00,57.1,51.6,29.66,ENE,68,6.9,7.4,82,0.04,,,0.06,WUHU216HW,2013-09-17 19:31:00,
2013-09-17 13:32:00,56.9,51.8,29.66,ENE,68,6.9,7.4,83,0.05,,,0.07,WUHU216HW,2013-09-17 19:32:00,
2013-09-17 13:33:00,56.9,51.1,29.66,ENE,68,6.9,7.4,81,0.05,,,0.07,WUHU216HW,2013-09-17 19:33:00,
2013-09-17 13:35:00,56.9,51.1,29.66,ENE,68,6.9,7.4,81,0.05,,,0.07,WUHU216HW,2013-09-17 19:35:00,
2013-09-17 13:37:00,57.1,51.6,29.66,ENE,68,7.2,7.4,82,0.05,,,0.07,WUHU216HW,2013-09-17 19:37:00,
2013-09-17 13:38:00,57.2,52.4,29.66,NE,45,8.7,8.7,84,0.06,,,0.08,WUHU216HW,2013-09-17 19:38:00,
2013-09-17 13:40:00,57.4,52.6,29.65,NE,45,7.2,8.7,84,0.06,,,0.08,WUHU216HW,2013-09-17 19:40:00,
2013-09-17 13:42:00,57.6,52.7,29.66,NE,45,12.1,12.1,84,0.06,,,0.08,WUHU216HW,2013-09-17 19:42:00,
2013-09-17 13:43:00,57.6,53.1,29.66,NE,45,10.5,12.1,85,0.06,,,0.08,WUHU216HW,2013-09-17 19:43:00,
2013-09-17 13:44:00,57.8,53.3,29.66,ENE,68,11.0,12.1,85,0.06,,,0.08,WUHU216HW,2013-09-17 19:44:00,
2013-09-17 13:45:00,57.8,53.3,29.66,ENE,68,11.0,12.1,85,0.06,,,0.08,WUHU216HW,2013-09-17 19:45:00,
2013-09-17 13:46:00,57.8,53.3,29.66,ENE,68,11.0,12.1,85,0.06,,,0.08,WUHU216HW,2013-09-17 19:46:00,
2013-09-17 13:47:00,58.3,52.8,29.65,ENE,68,13.0,15.2,82,0.06,,,0.08,WUHU216HW,2013-09-17 19:47:00,
2013-09-17 13:49:00,58.7,53.2,29.65,NE,45,9.2,15.2,82,0.06,,,0.08,WUHU216HW,2013-09-17 19:49:00,
2013-09-17 13:50:00,58.9,53.7,29.65,ENE,68,10.1,15.2,83,0.06,,,0.08,WUHU216HW,2013-09-17 19:50:00,
2013-09-17 13:51:00,59.2,53.7,29.65,NNE,23,8.5,15.2,82,0.06,,,0.08,WUHU216HW,2013-09-17 19:51:00,
2013-09-17 13:52:00,59.6,55.1,29.65,NE,45,8.5,15.2,85,0.06,,,0.08,WUHU216HW,2013-09-17 19:52:00,
2013-09-17 13:54:00,59.8,54.0,29.65,NE,45,6.9,15.2,81,0.06,,,0.08,WUHU216HW,2013-09-17 19:54:00,
2013-09-17 13:55:00,59.8,52.9,29.65,ENE,68,5.6,15.2,78,0.06,,,0.08,WUHU216HW,2013-09-17 19:55:00,
2013-09-17 13:56:00,59.8,52.9,29.65,ENE,68,5.6,15.2,78,0.06,,,0.08,WUHU216HW,2013-09-17 19:56:00,
2013-09-17 13:58:00,59.9,54.2,29.65,NE,45,4.3,13.4,81,0.06,,,0.08,WUHU216HW,2013-09-17 19:58:00,
2013-09-17 13:59:00,60.3,54.2,29.64,East,90,2.9,10.1,80,0.06,,,0.08,WUHU216HW,2013-09-17 19:59:00,
2013-09-17 14:01:00,60.5,54.0,29.64,ENE,68,1.1,8.5,79,0.06,,,0.08,WUHU216HW,2013-09-17 20:01:00,
2013-09-17 14:03:00,60.8,54.4,29.64,East,90,0.2,8.5,79,0.06,,,0.08,WUHU216HW,2013-09-17 20:03:00,
2013-09-17 14:04:00,61.2,54.4,29.64,ESE,113,4.0,5.8,78,0.06,,,0.08,WUHU216HW,2013-09-17 20:04:00,
2013-09-17 14:06:00,61.6,55.0,29.64,ESE,113,6.0,6.3,79,0.06,,,0.08,WUHU216HW,2013-09-17 20:06:00,
2013-09-17 14:08:00,62.1,55.5,29.64,ESE,113,5.6,7.2,79,0.06,,,0.08,WUHU216HW,2013-09-17 20:08:00,
2013-09-17 14:09:00,62.3,55.6,29.64,East,90,2.7,7.2,79,0.06,,,0.08,WUHU216HW,2013-09-17 20:09:00,
2013-09-17 14:11:00,62.3,55.6,29.64,ESE,113,2.9,7.2,79,0.05,,,0.08,WUHU216HW,2013-09-17 20:11:00,
2013-09-17 14:12:00,62.3,55.6,29.64,ESE,113,2.9,7.2,79,0.05,,,0.08,WUHU216HW,2013-09-17 20:12:00,
2013-09-17 14:14:00,63.0,56.0,29.64,SSE,158,5.6,7.6,78,0.05,,,0.08,WUHU216HW,2013-09-17 20:14:00,
2013-09-17 14:16:00,63.0,55.6,29.64,SE,135,3.6,7.6,77,0.05,,,0.08,WUHU216HW,2013-09-17 20:16:00,
2013-09-17 14:17:00,63.0,55.3,29.64,ESE,113,3.8,7.6,76,0.05,,,0.08,WUHU216HW,2013-09-17 20:17:00,
2013-09-17 14:19:00,63.0,55.3,29.63,SE,135,4.5,7.6,76,0.04,,,0.08,WUHU216HW,2013-09-17 20:19:00,
2013-09-17 14:21:00,63.0,55.3,29.63,SE,135,5.4,7.6,76,0.04,,,0.08,WUHU216HW,2013-09-17 20:21:00,
2013-09-17 14:22:00,63.0,55.3,29.63,SE,135,5.4,7.6,76,0.03,,,0.08,WUHU216HW,2013-09-17 20:22:00,
2013-09-17 14:24:00,63.0,55.3,29.63,SE,135,5.4,5.8,76,0.03,,,0.08,WUHU216HW,2013-09-17 20:24:00,
2013-09-17 14:26:00,63.0,55.3,29.63,East,90,3.1,5.8,76,0.02,,,0.08,WUHU216HW,2013-09-17 20:26:00,
2013-09-17 14:27:00,63.0,55.3,29.63,East,90,3.1,5.8,76,0.02,,,0.08,WUHU216HW,2013-09-17 20:27:00,
2013-09-17 14:30:00,63.0,55.3,29.63,SSE,158,2.5,5.8,76,0.02,,,0.08,WUHU216HW,2013-09-17 20:30:00,
2013-09-17 14:31:00,63.0,55.3,29.63,SSE,158,2.5,5.4,76,0.01,,,0.08,WUHU216HW,2013-09-17 20:31:00,
2013-09-17 14:32:00,63.0,55.3,29.63,SSE,158,2.5,5.4,76,0.01,,,0.08,WUHU216HW,2013-09-17 20:32:00,
2013-09-17 14:33:00,63.0,54.5,29.63,SE,135,0.0,5.4,74,0.01,,,0.08,WUHU216HW,2013-09-17 20:33:00,
2013-09-17 14:35:00,63.0,54.5,29.63,SW,225,0.4,5.4,74,0.00,,,0.08,WUHU216HW,2013-09-17 20:35:00,
2013-09-17 14:36:00,63.0,53.8,29.62,West,270,2.0,3.1,72,0.00,,,0.08,WUHU216HW,2013-09-17 20:36:00,
2013-09-17 14:37:00,62.8,53.6,29.62,WNW,293,1.6,3.1,72,0.00,,,0.08,WUHU216HW,2013-09-17 20:37:00,
2013-09-17 14:38:00,62.8,53.6,29.62,WNW,293,1.6,3.1,72,0.00,,,0.08,WUHU216HW,2013-09-17 20:38:00,
2013-09-17 14:40:00,62.5,53.6,29.62,NNW,338,2.0,2.5,73,0.00,,,0.08,WUHU216HW,2013-09-17 20:40:00,
2013-09-17 14:41:00,62.1,53.4,29.62,NNW,338,3.4,3.4,73,0.00,,,0.08,WUHU216HW,2013-09-17 20:41:00,
2013-09-17 14:43:00,61.9,53.2,29.61,NNW,338,2.5,3.4,73,0.00,,,0.08,WUHU216HW,2013-09-17 20:43:00,
2013-09-17 14:45:00,61.9,53.2,29.61,WNW,293,3.6,3.6,73,0.00,,,0.08,WUHU216HW,2013-09-17 20:45:00,
2013-09-17 14:47:00,61.9,53.2,29.61,WNW,293,3.6,3.6,73,0.00,,,0.08,WUHU216HW,2013-09-17 20:47:00,
2013-09-17 14:48:00,61.9,53.2,29.61,WNW,293,3.6,3.6,73,0.00,,,0.08,WUHU216HW,2013-09-17 20:48:00,
2013-09-17 14:50:00,61.7,53.0,29.61,West,270,1.8,3.6,73,0.00,,,0.08,WUHU216HW,2013-09-17 20:50:00,
2013-09-17 14:52:00,61.7,53.0,29.61,West,270,2.5,3.6,73,0.00,,,0.08,WUHU216HW,2013-09-17 20:52:00,
2013-09-17 14:53:00,61.7,53.0,29.61,NNW,338,4.0,4.0,73,0.00,,,0.08,WUHU216HW,2013-09-17 20:53:00,
2013-09-17 14:55:00,61.6,52.8,29.61,NW,315,3.4,4.3,73,0.00,,,0.08,WUHU216HW,2013-09-17 20:55:00,
2013-09-17 14:56:00,61.6,52.8,29.61,NW,315,3.4,4.3,73,0.00,,,0.08,WUHU216HW,2013-09-17 20:56:00,
2013-09-17 14:57:00,61.6,52.8,29.61,NW,315,3.4,4.3,73,0.00,,,0.08,WUHU216HW,2013-09-17 20:57:00,
2013-09-17 14:58:00,61.2,52.2,29.61,WNW,293,5.4,5.4,72,0.00,,,0.08,WUHU216HW,2013-09-17 20:58:00,
2013-09-17 15:00:00,60.8,51.8,29.61,NW,315,3.8,5.4,72,0.00,,,0.08,WUHU216HW,2013-09-17 21:00:00,
2013-09-17 15:01:00,60.7,52.0,29.61,NW,315,3.6,5.4,73,0.00,,,0.08,WUHU216HW,2013-09-17 21:01:00,
2013-09-17 15:02:00,60.7,52.0,29.62,NW,315,3.4,5.4,73,0.00,,,0.08,WUHU216HW,2013-09-17 21:02:00,
2013-09-17 15:03:00,60.5,52.2,29.61,NNW,338,4.9,5.4,74,0.00,,,0.08,WUHU216HW,2013-09-17 21:03:00,
2013-09-17 15:04:00,60.5,52.2,29.61,NNW,338,6.3,6.3,74,0.00,,,0.08,WUHU216HW,2013-09-17 21:04:00,
2013-09-17 15:05:00,60.5,52.6,29.61,NNW,338,7.2,7.4,75,0.00,,,0.08,WUHU216HW,2013-09-17 21:05:00,
2013-09-17 15:06:00,60.3,52.0,29.61,NNW,338,8.7,8.7,74,0.00,,,0.08,WUHU216HW,2013-09-17 21:06:00,
2013-09-17 15:07:00,60.1,52.2,29.61,NW,315,7.2,8.7,75,0.00,,,0.08,WUHU216HW,2013-09-17 21:07:00,
2013-09-17 15:08:00,60.1,52.2,29.61,NNW,338,9.2,9.2,75,0.00,,,0.08,WUHU216HW,2013-09-17 21:08:00,
2013-09-17 15:09:00,60.1,52.2,29.61,NNW,338,8.3,9.2,75,0.00,,,0.08,WUHU216HW,2013-09-17 21:09:00,
2013-09-17 15:10:00,60.1,52.6,29.61,NW,315,8.7,9.2,76,0.00,,,0.08,WUHU216HW,2013-09-17 21:10:00,
2013-09-17 15:12:00,59.9,52.4,29.61,NW,315,6.7,9.2,76,0.00,,,0.08,WUHU216HW,2013-09-17 21:12:00,
2013-09-17 15:13:00,59.9,52.4,29.62,NW,315,9.2,9.2,76,0.00,,,0.08,WUHU216HW,2013-09-17 21:13:00,
2013-09-17 15:15:00,59.8,52.6,29.62,NW,315,8.3,9.2,77,0.00,,,0.08,WUHU216HW,2013-09-17 21:15:00,
2013-09-17 15:17:00,59.6,52.4,29.62,NW,315,6.9,9.2,77,0.00,,,0.08,WUHU216HW,2013-09-17 21:17:00,
2013-09-17 15:19:00,59.6,52.4,29.62,NW,315,6.9,9.2,77,0.00,,,0.08,WUHU216HW,2013-09-17 21:19:00,
2013-09-17 15:20:00,59.0,52.6,29.62,NNW,338,7.6,9.2,79,0.00,,,0.08,WUHU216HW,2013-09-17 21:20:00,
2013-09-17 15:22:00,59.0,52.2,29.62,NNW,338,8.9,10.3,78,0.00,,,0.08,WUHU216HW,2013-09-17 21:22:00,
2013-09-17 15:23:00,58.9,52.4,29.63,NW,315,9.4,10.3,79,0.00,,,0.08,WUHU216HW,2013-09-17 21:23:00,
2013-09-17 15:24:00,58.7,52.2,29.63,NW,315,9.4,10.3,79,0.00,,,0.08,WUHU216HW,2013-09-17 21:24:00,
2013-09-17 15:25:00,58.5,52.4,29.63,WNW,293,8.3,10.3,80,0.01,,,0.09,WUHU216HW,2013-09-17 21:25:00,
2013-09-17 15:27:00,58.3,52.6,29.63,NW,315,6.9,10.3,81,0.01,,,0.09,WUHU216HW,2013-09-17 21:27:00,
2013-09-17 15:28:00,58.1,52.4,29.63,NW,315,10.5,10.5,81,0.01,,,0.09,WUHU216HW,2013-09-17 21:28:00,
2013-09-17 15:29:00,58.1,52.4,29.63,NW,315,10.5,10.5,81,0.01,,,0.09,WUHU216HW,2013-09-17 21:29:00,
2013-09-17 15:30:00,58.0,52.2,29.63,NW,315,10.5,10.5,81,0.01,,,0.09,WUHU216HW,2013-09-17 21:30:00,
2013-09-17 15:33:00,58.0,52.2,29.63,NW,315,10.5,10.5,81,0.01,,,0.09,WUHU216HW,2013-09-17 21:33:00,
2013-09-17 15:34:00,58.0,52.2,29.63,NW,315,10.5,10.5,81,0.01,,,0.09,WUHU216HW,2013-09-17 21:34:00,
2013-09-17 15:35:00,58.0,52.2,29.63,NW,315,10.5,10.5,81,0.01,,,0.09,WUHU216HW,2013-09-17 21:35:00,
2013-09-17 15:36:00,58.0,52.5,29.63,North,0,0.0,10.5,82,0.01,,,0.09,WUHU216HW,2013-09-17 21:36:00,
2013-09-17 15:38:00,58.0,52.8,29.63,North,0,0.0,10.5,83,0.02,,,0.10,WUHU216HW,2013-09-17 21:38:00,
2013-09-17 15:39:00,58.0,52.8,29.63,North,0,0.0,10.5,83,0.02,,,0.10,WUHU216HW,2013-09-17 21:39:00,
2013-09-17 15:41:00,58.0,52.8,29.64,North,0,0.0,10.5,83,0.02,,,0.10,WUHU216HW,2013-09-17 21:41:00,
2013-09-17 15:43:00,58.0,52.5,29.64,North,0,0.0,10.5,82,0.02,,,0.10,WUHU216HW,2013-09-17 21:43:00,
2013-09-17 15:44:00,58.0,52.5,29.64,North,0,0.0,10.5,82,0.02,,,0.10,WUHU216HW,2013-09-17 21:44:00,
2013-09-17 15:46:00,57.8,52.7,29.64,NW,315,6.9,6.9,83,0.02,,,0.10,WUHU216HW,2013-09-17 21:46:00,
2013-09-17 15:48:00,57.6,52.5,29.64,North,0,9.8,9.8,83,0.02,,,0.10,WUHU216HW,2013-09-17 21:48:00,
2013-09-17 15:49:00,57.6,52.5,29.64,North,0,9.8,9.8,83,0.02,,,0.10,WUHU216HW,2013-09-17 21:49:00,
2013-09-17 15:51:00,57.4,52.3,29.65,North,0,11.4,11.4,83,0.02,,,0.10,WUHU216HW,2013-09-17 21:51:00,
2013-09-17 15:53:00,57.2,52.1,29.65,NNW,338,9.6,15.0,83,0.03,,,0.11,WUHU216HW,2013-09-17 21:53:00,
2013-09-17 15:54:00,57.2,52.1,29.65,NNW,338,9.2,15.0,83,0.03,,,0.11,WUHU216HW,2013-09-17 21:54:00,
2013-09-17 15:56:00,57.1,52.2,29.65,NNW,338,9.8,15.0,84,0.04,,,0.12,WUHU216HW,2013-09-17 21:56:00,
2013-09-17 15:58:00,57.1,52.2,29.65,NNW,338,8.5,15.0,84,0.04,,,0.12,WUHU216HW,2013-09-17 21:58:00,
2013-09-17 15:59:00,57.1,52.2,29.65,NNW,338,8.5,15.0,84,0.04,,,0.12,WUHU216HW,2013-09-17 21:59:00,
2013-09-17 16:00:00,56.7,51.8,29.65,NNW,338,8.7,15.0,84,0.06,,,0.14,WUHU216HW,2013-09-17 22:00:00,
2013-09-17 16:01:00,56.7,51.8,29.65,NNW,338,4.9,15.0,84,0.06,,,0.14,WUHU216HW,2013-09-17 22:01:00,
2013-09-17 16:03:00,56.5,52.0,29.65,North,0,3.8,11.4,85,0.06,,,0.14,WUHU216HW,2013-09-17 22:03:00,
2013-09-17 16:04:00,56.5,52.0,29.65,NW,315,4.5,11.4,85,0.06,,,0.14,WUHU216HW,2013-09-17 22:04:00,
2013-09-17 16:06:00,56.3,51.8,29.65,West,270,4.0,11.4,85,0.07,,,0.15,WUHU216HW,2013-09-17 22:06:00,
2013-09-17 16:07:00,56.3,51.5,29.65,West,270,4.7,9.4,84,0.07,,,0.15,WUHU216HW,2013-09-17 22:07:00,
2013-09-17 16:08:00,56.3,51.5,29.65,WSW,248,6.5,9.4,84,0.07,,,0.15,WUHU216HW,2013-09-17 22:08:00,
2013-09-17 16:10:00,56.3,51.5,29.64,WSW,248,2.0,9.4,84,0.08,,,0.16,WUHU216HW,2013-09-17 22:10:00,
2013-09-17 16:11:00,56.3,51.5,29.64,West,270,1.6,8.7,84,0.08,,,0.16,WUHU216HW,2013-09-17 22:11:00,
2013-09-17 16:12:00,56.3,51.5,29.64,West,270,0.2,6.5,84,0.08,,,0.16,WUHU216HW,2013-09-17 22:12:00,
2013-09-17 16:13:00,56.3,51.5,29.63,West,270,0.2,6.5,84,0.08,,,0.16,WUHU216HW,2013-09-17 22:13:00,
2013-09-17 16:15:00,56.2,52.0,29.61,East,90,9.6,9.6,86,0.09,,,0.17,WUHU216HW,2013-09-17 22:15:00,
2013-09-17 16:16:00,56.2,52.0,29.61,East,90,7.2,9.6,86,0.10,,,0.18,WUHU216HW,2013-09-17 22:16:00,
2013-09-17 16:18:00,56.0,51.9,29.61,ESE,113,8.5,9.6,86,0.10,,,0.18,WUHU216HW,2013-09-17 22:18:00,
2013-09-17 16:20:00,56.0,52.1,29.60,ESE,113,7.6,9.6,87,0.10,,,0.18,WUHU216HW,2013-09-17 22:20:00,
2013-09-17 16:21:00,55.8,51.9,29.60,ESE,113,4.3,9.6,87,0.10,,,0.18,WUHU216HW,2013-09-17 22:21:00,
2013-09-17 16:23:00,55.8,51.7,29.60,East,90,1.8,9.6,86,0.09,,,0.18,WUHU216HW,2013-09-17 22:23:00,
2013-09-17 16:24:00,55.8,51.7,29.60,ENE,68,1.8,9.6,86,0.09,,,0.18,WUHU216HW,2013-09-17 22:24:00,
2013-09-17 16:26:00,55.8,51.7,29.60,WNW,293,0.9,9.2,86,0.09,,,0.18,WUHU216HW,2013-09-17 22:26:00,
2013-09-17 16:28:00,55.8,51.3,29.59,SW,225,3.8,7.8,85,0.09,,,0.18,WUHU216HW,2013-09-17 22:28:00,
2013-09-17 16:29:00,55.8,51.3,29.59,SE,135,2.0,7.6,85,0.09,,,0.18,WUHU216HW,2013-09-17 22:29:00,
2013-09-17 16:31:00,55.8,51.7,29.59,East,90,1.3,6.7,86,0.10,,,0.19,WUHU216HW,2013-09-17 22:31:00,
2013-09-17 16:33:00,55.6,51.5,29.59,ENE,68,4.7,4.7,86,0.10,,,0.19,WUHU216HW,2013-09-17 22:33:00,
2013-09-17 16:34:00,55.6,50.5,29.59,NNE,23,3.4,4.7,83,0.10,,,0.19,WUHU216HW,2013-09-17 22:34:00,
2013-09-17 16:36:00,55.4,50.3,29.59,NNW,338,1.1,4.7,83,0.09,,,0.19,WUHU216HW,2013-09-17 22:36:00,
2013-09-17 16:38:00,55.4,50.3,29.58,NNW,338,2.5,4.7,83,0.09,,,0.19,WUHU216HW,2013-09-17 22:38:00,
2013-09-17 16:39:00,55.4,50.3,29.58,NNW,338,2.5,4.7,83,0.09,,,0.19,WUHU216HW,2013-09-17 22:39:00,
2013-09-17 16:41:00,55.4,50.3,29.57,NNW,338,2.5,4.7,83,0.09,,,0.19,WUHU216HW,2013-09-17 22:41:00,
2013-09-17 16:42:00,55.4,50.3,29.58,West,270,3.4,4.7,83,0.09,,,0.19,WUHU216HW,2013-09-17 22:42:00,
2013-09-17 16:44:00,55.3,50.1,29.58,WNW,293,4.7,4.7,83,0.09,,,0.19,WUHU216HW,2013-09-17 22:44:00,
2013-09-17 16:46:00,55.3,50.5,29.59,West,270,8.7,9.6,84,0.09,,,0.19,WUHU216HW,2013-09-17 22:46:00,
2013-09-17 16:47:00,55.3,50.5,29.59,West,270,8.7,9.6,84,0.09,,,0.19,WUHU216HW,2013-09-17 22:47:00,
2013-09-17 16:49:00,55.1,50.3,29.58,NW,315,3.6,9.6,84,0.09,,,0.19,WUHU216HW,2013-09-17 22:49:00,
2013-09-17 16:51:00,55.1,50.3,29.58,NW,315,3.6,9.6,84,0.08,,,0.19,WUHU216HW,2013-09-17 22:51:00,
2013-09-17 16:52:00,55.1,50.3,29.58,NW,315,3.6,9.6,84,0.08,,,0.19,WUHU216HW,2013-09-17 22:52:00,
2013-09-17 16:54:00,55.3,50.5,29.58,WNW,293,4.7,9.6,84,0.08,,,0.19,WUHU216HW,2013-09-17 22:54:00,
2013-09-17 16:56:00,55.3,50.5,29.58,WNW,293,4.7,8.7,84,0.07,,,0.19,WUHU216HW,2013-09-17 22:56:00,
2013-09-17 16:57:00,55.4,50.6,29.58,NW,315,4.0,8.7,84,0.07,,,0.19,WUHU216HW,2013-09-17 22:57:00,
2013-09-17 16:59:00,55.4,50.6,29.57,NW,315,4.7,6.3,84,0.05,,,0.19,WUHU216HW,2013-09-17 22:59:00,
2013-09-17 17:00:00,55.4,50.0,29.57,NW,315,4.0,6.3,82,0.05,,,0.19,WUHU216HW,2013-09-17 23:00:00,
2013-09-17 17:02:00,55.4,50.3,29.57,West,270,5.4,6.3,83,0.04,,,0.19,WUHU216HW,2013-09-17 23:02:00,
2013-09-17 17:04:00,55.8,50.9,29.58,West,270,8.1,9.2,84,0.04,,,0.19,WUHU216HW,2013-09-17 23:04:00,
2013-09-17 17:05:00,55.8,50.9,29.58,West,270,6.0,9.2,84,0.04,,,0.19,WUHU216HW,2013-09-17 23:05:00,
2013-09-17 17:07:00,55.8,50.9,29.58,WNW,293,5.4,9.2,84,0.03,,,0.19,WUHU216HW,2013-09-17 23:07:00,
2013-09-17 17:09:00,55.8,50.3,29.58,West,270,6.3,9.2,82,0.03,,,0.19,WUHU216HW,2013-09-17 23:09:00,
2013-09-17 17:10:00,56.0,50.9,29.58,WNW,293,8.1,9.2,83,0.03,,,0.19,WUHU216HW,2013-09-17 23:10:00,
2013-09-17 17:12:00,56.2,50.7,29.58,WNW,293,6.7,9.2,82,0.03,,,0.19,WUHU216HW,2013-09-17 23:12:00,
2013-09-17 17:15:00,56.2,50.4,29.59,WNW,293,5.1,8.5,81,0.01,,,0.19,WUHU216HW,2013-09-17 23:15:00,
2013-09-17 17:17:00,56.3,50.6,29.59,NW,315,6.9,8.7,81,0.01,,,0.19,WUHU216HW,2013-09-17 23:17:00,
2013-09-17 17:19:00,56.3,50.6,29.59,NW,315,8.1,8.7,81,0.01,,,0.19,WUHU216HW,2013-09-17 23:19:00,
2013-09-17 17:20:00,56.3,50.6,29.59,NW,315,6.9,8.7,81,0.01,,,0.19,WUHU216HW,2013-09-17 23:20:00,
2013-09-17 17:21:00,56.3,50.6,29.59,NNW,338,10.5,10.5,81,0.01,,,0.19,WUHU216HW,2013-09-17 23:21:00,
2013-09-17 17:22:00,56.3,50.6,29.59,NW,315,7.6,10.5,81,0.01,,,0.19,WUHU216HW,2013-09-17 23:22:00,
2013-09-17 17:24:00,56.3,50.6,29.60,NNW,338,7.2,10.5,81,0.01,,,0.19,WUHU216HW,2013-09-17 23:24:00,
2013-09-17 17:25:00,56.3,50.2,29.59,NW,315,9.8,10.5,80,0.01,,,0.19,WUHU216HW,2013-09-17 23:25:00,
2013-09-17 17:26:00,56.3,49.9,29.60,NW,315,15.4,15.4,79,0.00,,,0.19,WUHU216HW,2013-09-17 23:26:00,
2013-09-17 17:27:00,56.5,50.0,29.60,NNW,338,15.2,17.2,79,0.00,,,0.19,WUHU216HW,2013-09-17 23:27:00,
2013-09-17 17:30:00,56.5,49.7,29.60,WNW,293,14.1,17.2,78,0.00,,,0.19,WUHU216HW,2013-09-17 23:30:00,
2013-09-17 17:31:00,56.5,50.0,29.59,NW,315,11.4,17.2,79,0.00,,,0.19,WUHU216HW,2013-09-17 23:31:00,
2013-09-17 17:33:00,56.5,50.0,29.59,WNW,293,8.5,17.2,79,0.00,,,0.19,WUHU216HW,2013-09-17 23:33:00,
2013-09-17 17:35:00,56.5,50.4,29.59,NW,315,5.8,17.2,80,0.00,,,0.19,WUHU216HW,2013-09-17 23:35:00,
2013-09-17 17:36:00,56.5,50.0,29.59,NNW,338,6.9,17.2,79,0.00,,,0.19,WUHU216HW,2013-09-17 23:36:00,
2013-09-17 17:38:00,56.3,50.2,29.58,NNW,338,7.6,15.4,80,0.00,,,0.19,WUHU216HW,2013-09-17 23:38:00,
2013-09-17 17:40:00,56.2,50.0,29.58,NW,315,6.0,14.1,80,0.00,,,0.19,WUHU216HW,2013-09-17 23:40:00,
2013-09-17 17:42:00,56.0,50.2,29.58,NW,315,4.5,10.7,81,0.00,,,0.19,WUHU216HW,2013-09-17 23:42:00,
2013-09-17 17:43:00,56.0,50.2,29.58,NW,315,4.5,10.7,81,0.00,,,0.19,WUHU216HW,2013-09-17 23:43:00,
2013-09-17 17:45:00,55.8,50.1,29.58,West,270,4.0,7.8,81,0.00,,,0.19,WUHU216HW,2013-09-17 23:45:00,
2013-09-17 17:47:00,55.8,50.1,29.59,WNW,293,4.0,7.8,81,0.00,,,0.19,WUHU216HW,2013-09-17 23:47:00,
2013-09-17 17:48:00,55.8,50.1,29.59,SW,225,2.5,7.6,81,0.00,,,0.19,WUHU216HW,2013-09-17 23:48:00,
2013-09-17 17:50:00,55.8,50.1,29.59,WSW,248,5.6,6.3,81,0.00,,,0.19,WUHU216HW,2013-09-17 23:50:00,
2013-09-17 17:52:00,55.8,50.1,29.60,WSW,248,9.2,9.2,81,0.00,,,0.19,WUHU216HW,2013-09-17 23:52:00,
2013-09-17 17:53:00,56.0,49.9,29.60,WSW,248,7.2,10.5,80,0.01,,,0.20,WUHU216HW,2013-09-17 23:53:00,
2013-09-17 17:55:00,56.0,49.9,29.60,NNW,338,4.9,10.5,80,0.01,,,0.20,WUHU216HW,2013-09-17 23:55:00,
2013-09-17 17:56:00,56.2,49.0,29.60,NNW,338,6.9,10.5,77,0.01,,,0.20,WUHU216HW,2013-09-17 23:56:00,
2013-09-17 17:57:00,56.2,49.7,29.60,North,0,4.7,10.5,79,0.01,,,0.20,WUHU216HW,2013-09-17 23:57:00,
2013-09-17 17:58:00,56.2,50.4,29.60,NNW,338,4.0,10.5,81,0.01,,,0.20,WUHU216HW,2013-09-17 23:58:00,
2013-09-17 18:00:00,56.2,50.4,29.60,North,0,1.8,10.5,81,0.01,,,0.20,WUHU216HW,2013-09-18 00:00:00,
2013-09-17 18:01:00,56.0,50.2,29.60,North,0,2.5,10.5,81,0.01,,,0.20,WUHU216HW,2013-09-18 00:01:00,
2013-09-17 18:02:00,56.0,50.2,29.60,North,0,0.4,10.5,81,0.01,,,0.20,WUHU216HW,2013-09-18 00:02:00,
2013-09-17 18:03:00,55.8,50.1,29.60,ENE,68,1.1,7.8,81,0.01,,,0.20,WUHU216HW,2013-09-18 00:03:00,
2013-09-17 18:05:00,55.8,50.1,29.60,NNE,23,0.2,7.8,81,0.01,,,0.20,WUHU216HW,2013-09-18 00:05:00,
2013-09-17 18:06:00,55.8,50.1,29.60,NNE,23,0.7,6.9,81,0.01,,,0.20,WUHU216HW,2013-09-18 00:06:00,
2013-09-17 18:07:00,55.8,50.3,29.59,ENE,68,5.1,5.1,82,0.01,,,0.20,WUHU216HW,2013-09-18 00:07:00,
2013-09-17 18:09:00,55.8,50.3,29.59,ESE,113,1.6,5.1,82,0.01,,,0.20,WUHU216HW,2013-09-18 00:09:00,
2013-09-17 18:10:00,55.6,50.5,29.59,NNE,23,1.3,5.1,83,0.02,,,0.21,WUHU216HW,2013-09-18 00:10:00,
2013-09-17 18:11:00,55.6,50.5,29.59,NNE,23,1.3,5.1,83,0.02,,,0.21,WUHU216HW,2013-09-18 00:11:00,
2013-09-17 18:13:00,55.4,50.6,29.59,NE,45,3.4,5.1,84,0.02,,,0.21,WUHU216HW,2013-09-18 00:13:00,
2013-09-17 18:14:00,55.4,50.6,29.59,NE,45,6.9,6.9,84,0.02,,,0.21,WUHU216HW,2013-09-18 00:14:00,
2013-09-17 18:16:00,55.3,51.1,29.59,ENE,68,9.6,9.6,86,0.02,,,0.21,WUHU216HW,2013-09-18 00:16:00,
2013-09-17 18:18:00,55.1,51.0,29.58,ENE,68,5.1,11.0,86,0.02,,,0.21,WUHU216HW,2013-09-18 00:18:00,
2013-09-17 18:19:00,54.9,50.8,29.58,ENE,68,5.6,11.0,86,0.02,,,0.21,WUHU216HW,2013-09-18 00:19:00,
2013-09-17 18:21:00,54.7,50.2,29.59,ENE,68,4.5,11.0,85,0.02,,,0.21,WUHU216HW,2013-09-18 00:21:00,
2013-09-17 18:24:00,54.7,50.2,29.59,ENE,68,4.5,11.0,85,0.02,,,0.21,WUHU216HW,2013-09-18 00:24:00,
2013-09-17 18:26:00,54.9,49.5,29.59,East,90,4.7,11.0,82,0.02,,,0.21,WUHU216HW,2013-09-18 00:26:00,
2013-09-17 18:29:00,55.1,50.0,29.56,SE,135,6.5,6.7,83,0.02,,,0.21,WUHU216HW,2013-09-18 00:29:00,
2013-09-17 18:31:00,55.1,50.0,29.56,SSE,158,4.7,6.7,83,0.02,,,0.21,WUHU216HW,2013-09-18 00:31:00,
2013-09-17 18:34:00,55.1,50.0,29.56,SSE,158,2.5,6.7,83,0.02,,,0.21,WUHU216HW,2013-09-18 00:34:00,
2013-09-17 18:36:00,55.1,50.0,29.57,ESE,113,3.4,6.7,83,0.02,,,0.21,WUHU216HW,2013-09-18 00:36:00,
2013-09-17 18:40:00,54.9,49.5,29.58,SSE,158,4.0,6.3,82,0.02,,,0.21,WUHU216HW,2013-09-18 00:40:00,
2013-09-17 18:41:00,54.9,49.5,29.58,South,180,4.5,5.4,82,0.02,,,0.21,WUHU216HW,2013-09-18 00:41:00,
2013-09-17 18:45:00,54.9,50.1,29.58,SE,135,7.2,10.5,84,0.02,,,0.21,WUHU216HW,2013-09-18 00:45:00,
2013-09-17 18:46:00,54.9,50.1,29.59,SSW,203,5.1,10.5,84,0.02,,,0.21,WUHU216HW,2013-09-18 00:46:00,
2013-09-17 18:50:00,54.9,50.4,29.59,SSE,158,7.4,10.5,85,0.02,,,0.21,WUHU216HW,2013-09-18 00:50:00,
2013-09-17 18:51:00,54.9,50.4,29.58,ESE,113,8.3,10.5,85,0.01,,,0.21,WUHU216HW,2013-09-18 00:51:00,
2013-09-17 18:55:00,54.9,50.8,29.58,SSE,158,11.2,11.2,86,0.01,,,0.21,WUHU216HW,2013-09-18 00:55:00,
2013-09-17 18:56:00,54.9,50.8,29.58,SSE,158,8.5,11.2,86,0.01,,,0.21,WUHU216HW,2013-09-18 00:56:00,
2013-09-17 19:00:00,54.9,50.8,29.59,South,180,10.1,12.8,86,0.01,,,0.21,WUHU216HW,2013-09-18 01:00:00,
2013-09-17 19:01:00,54.9,50.8,29.59,South,180,7.6,12.8,86,0.01,,,0.21,WUHU216HW,2013-09-18 01:01:00,
2013-09-17 19:05:00,54.9,51.0,29.59,South,180,8.5,12.8,87,0.01,,,0.21,WUHU216HW,2013-09-18 01:05:00,
2013-09-17 19:06:00,54.9,51.0,29.59,SSW,203,7.6,12.8,87,0.00,,,0.21,WUHU216HW,2013-09-18 01:06:00,
2013-09-17 19:07:00,54.9,51.0,29.59,SSE,158,8.9,12.8,87,0.00,,,0.21,WUHU216HW,2013-09-18 01:07:00,
2013-09-17 19:10:00,54.9,51.0,29.58,SSE,158,8.7,11.2,87,0.00,,,0.21,WUHU216HW,2013-09-18 01:10:00,
2013-09-17 19:11:00,54.9,51.0,29.58,South,180,8.9,11.2,87,0.00,,,0.21,WUHU216HW,2013-09-18 01:11:00,
2013-09-17 19:12:00,54.9,51.0,29.58,SSE,158,11.2,11.6,87,0.00,,,0.21,WUHU216HW,2013-09-18 01:12:00,
2013-09-17 19:16:00,54.7,50.9,29.56,SE,135,8.5,11.6,87,0.01,,,0.22,WUHU216HW,2013-09-18 01:16:00,
2013-09-17 19:17:00,54.7,50.9,29.54,SE,135,10.7,11.6,87,0.01,,,0.22,WUHU216HW,2013-09-18 01:17:00,
2013-09-17 19:21:00,54.7,50.9,29.55,SSW,203,14.5,14.5,87,0.01,,,0.22,WUHU216HW,2013-09-18 01:21:00,
2013-09-17 19:22:00,54.7,50.9,29.56,SSW,203,14.3,14.5,87,0.01,,,0.22,WUHU216HW,2013-09-18 01:22:00,
2013-09-17 19:26:00,54.4,50.2,29.56,SW,225,9.8,15.9,86,0.01,,,0.22,WUHU216HW,2013-09-18 01:26:00,
2013-09-17 19:27:00,54.4,50.2,29.56,South,180,14.8,15.9,86,0.01,,,0.22,WUHU216HW,2013-09-18 01:27:00,
2013-09-17 19:32:00,54.4,49.6,29.56,South,180,15.0,16.3,84,0.01,,,0.22,WUHU216HW,2013-09-18 01:32:00,
2013-09-17 19:37:00,54.4,49.3,29.55,SSW,203,13.4,16.3,83,0.01,,,0.22,WUHU216HW,2013-09-18 01:37:00,
2013-09-17 19:42:00,54.4,49.0,29.55,SSE,158,13.0,16.1,82,0.01,,,0.22,WUHU216HW,2013-09-18 01:42:00,
2013-09-17 19:47:00,54.4,48.7,29.55,SE,135,8.1,16.1,81,0.01,,,0.22,WUHU216HW,2013-09-18 01:47:00,
2013-09-17 19:52:00,54.5,48.9,29.54,SSE,158,11.0,14.5,81,0.01,,,0.22,WUHU216HW,2013-09-18 01:52:00,
2013-09-17 19:57:00,54.5,48.5,29.53,SSE,158,7.8,13.0,80,0.01,,,0.22,WUHU216HW,2013-09-18 01:57:00,
2013-09-17 19:58:00,54.5,48.5,29.53,SSE,158,12.3,13.0,80,0.01,,,0.22,WUHU216HW,2013-09-18 01:58:00,
2013-09-17 20:02:00,54.4,48.3,29.53,South,180,14.3,15.0,80,0.01,,,0.22,WUHU216HW,2013-09-18 02:02:00,
2013-09-17 20:03:00,54.4,48.3,29.53,South,180,12.1,15.0,80,0.01,,,0.22,WUHU216HW,2013-09-18 02:03:00,
2013-09-17 20:07:00,54.4,48.3,29.53,SSE,158,11.4,15.0,80,0.01,,,0.22,WUHU216HW,2013-09-18 02:07:00,
2013-09-17 20:08:00,54.4,48.0,29.53,South,180,8.7,15.0,79,0.01,,,0.22,WUHU216HW,2013-09-18 02:08:00,
2013-09-17 20:12:00,54.4,48.0,29.53,SSE,158,12.1,13.0,79,0.00,,,0.22,WUHU216HW,2013-09-18 02:12:00,
2013-09-17 20:13:00,54.4,48.0,29.53,SSE,158,9.8,13.0,79,0.00,,,0.22,WUHU216HW,2013-09-18 02:13:00,
2013-09-17 20:14:00,54.4,48.0,29.53,South,180,8.5,13.0,79,0.00,,,0.22,WUHU216HW,2013-09-18 02:14:00,
2013-09-17 20:17:00,54.4,48.0,29.54,SSW,203,8.1,12.8,79,0.00,,,0.22,WUHU216HW,2013-09-18 02:17:00,
2013-09-17 20:18:00,54.4,47.6,29.54,SSW,203,6.7,12.8,78,0.00,,,0.22,WUHU216HW,2013-09-18 02:18:00,
2013-09-17 20:19:00,54.4,47.6,29.54,SSE,158,7.4,12.8,78,0.00,,,0.22,WUHU216HW,2013-09-18 02:19:00,
2013-09-17 20:22:00,54.4,47.6,29.53,SSE,158,9.8,12.8,78,0.00,,,0.22,WUHU216HW,2013-09-18 02:22:00,
2013-09-17 20:23:00,54.4,47.6,29.53,SSE,158,9.4,12.8,78,0.00,,,0.22,WUHU216HW,2013-09-18 02:23:00,
2013-09-17 20:24:00,54.4,47.6,29.53,SSE,158,8.3,11.0,78,0.00,,,0.22,WUHU216HW,2013-09-18 02:24:00,
2013-09-17 20:27:00,54.4,47.6,29.54,South,180,9.8,12.3,78,0.00,,,0.22,WUHU216HW,2013-09-18 02:27:00,
2013-09-17 20:28:00,54.4,47.6,29.54,SSW,203,8.9,12.3,78,0.00,,,0.22,WUHU216HW,2013-09-18 02:28:00,
2013-09-17 20:29:00,54.4,47.6,29.54,SE,135,9.2,12.3,78,0.00,,,0.22,WUHU216HW,2013-09-18 02:29:00,
2013-09-17 20:32:00,54.4,47.6,29.54,SSE,158,6.3,13.2,78,0.00,,,0.22,WUHU216HW,2013-09-18 02:32:00,
2013-09-17 20:33:00,54.4,47.6,29.54,SSW,203,8.7,13.2,78,0.00,,,0.22,WUHU216HW,2013-09-18 02:33:00,
2013-09-17 20:34:00,54.4,47.6,29.54,South,180,6.7,13.2,78,0.00,,,0.22,WUHU216HW,2013-09-18 02:34:00,
2013-09-17 20:38:00,54.4,47.6,29.54,SSW,203,6.5,13.2,78,0.00,,,0.22,WUHU216HW,2013-09-18 02:38:00,
2013-09-17 20:39:00,54.4,47.6,29.54,South,180,8.5,13.2,78,0.00,,,0.22,WUHU216HW,2013-09-18 02:39:00,
2013-09-17 20:43:00,54.4,47.6,29.54,South,180,6.0,9.6,78,0.00,,,0.22,WUHU216HW,2013-09-18 02:43:00,
2013-09-17 20:44:00,54.4,47.6,29.54,SSW,203,5.6,8.5,78,0.00,,,0.22,WUHU216HW,2013-09-18 02:44:00,
2013-09-17 20:45:00,54.2,47.5,29.54,SSW,203,6.0,8.5,78,0.00,,,0.22,WUHU216HW,2013-09-18 02:45:00,
2013-09-17 20:48:00,54.2,47.5,29.54,SSW,203,4.7,8.5,78,0.00,,,0.22,WUHU216HW,2013-09-18 02:48:00,
2013-09-17 20:50:00,54.2,47.5,29.55,South,180,4.0,8.5,78,0.00,,,0.22,WUHU216HW,2013-09-18 02:50:00,
2013-09-17 20:53:00,54.0,47.4,29.55,SSE,158,6.7,9.2,78,0.00,,,0.22,WUHU216HW,2013-09-18 02:53:00,
2013-09-17 20:54:00,54.0,47.4,29.55,SSW,203,6.3,9.2,78,0.00,,,0.22,WUHU216HW,2013-09-18 02:54:00,
2013-09-17 20:55:00,54.0,47.4,29.55,SSE,158,4.3,9.2,78,0.00,,,0.22,WUHU216HW,2013-09-18 02:55:00,
2013-09-17 20:58:00,54.2,47.5,29.55,South,180,7.2,9.2,78,0.00,,,0.22,WUHU216HW,2013-09-18 02:58:00,
2013-09-17 20:59:00,54.2,47.5,29.55,SSW,203,6.9,9.2,78,0.00,,,0.22,WUHU216HW,2013-09-18 02:59:00,
2013-09-17 21:00:00,54.2,47.5,29.55,SE,135,4.9,9.2,78,0.00,,,0.22,WUHU216HW,2013-09-18 03:00:00,
2013-09-17 21:01:00,54.2,47.5,29.55,South,180,6.3,9.2,78,0.00,,,0.22,WUHU216HW,2013-09-18 03:01:00,
2013-09-17 21:03:00,54.2,47.5,29.55,SSE,158,4.7,7.2,78,0.00,,,0.22,WUHU216HW,2013-09-18 03:03:00,
2013-09-17 21:04:00,54.2,47.5,29.55,South,180,5.1,7.2,78,0.00,,,0.22,WUHU216HW,2013-09-18 03:04:00,
2013-09-17 21:05:00,54.2,47.5,29.55,SSE,158,5.1,7.2,78,0.00,,,0.22,WUHU216HW,2013-09-18 03:05:00,
2013-09-17 21:06:00,54.2,47.5,29.55,South,180,4.0,7.2,78,0.00,,,0.22,WUHU216HW,2013-09-18 03:06:00,
2013-09-17 21:08:00,54.2,47.5,29.55,SSE,158,3.6,7.2,78,0.00,,,0.22,WUHU216HW,2013-09-18 03:08:00,
2013-09-17 21:09:00,54.2,47.5,29.55,South,180,5.4,7.2,78,0.00,,,0.22,WUHU216HW,2013-09-18 03:09:00,
2013-09-17 21:10:00,54.2,47.5,29.55,South,180,5.1,6.3,78,0.00,,,0.22,WUHU216HW,2013-09-18 03:10:00,
2013-09-17 21:11:00,54.2,47.5,29.55,South,180,4.7,6.0,78,0.00,,,0.22,WUHU216HW,2013-09-18 03:11:00,
2013-09-17 21:13:00,54.2,47.5,29.55,South,180,4.0,6.0,78,0.00,,,0.22,WUHU216HW,2013-09-18 03:13:00,
2013-09-17 21:14:00,54.0,47.4,29.55,SSE,158,4.0,6.0,78,0.00,,,0.22,WUHU216HW,2013-09-18 03:14:00,
2013-09-17 21:15:00,54.0,47.4,29.55,SSE,158,4.9,6.0,78,0.00,,,0.22,WUHU216HW,2013-09-18 03:15:00,
2013-09-17 21:17:00,54.0,47.4,29.54,South,180,4.7,6.0,78,0.00,,,0.22,WUHU216HW,2013-09-18 03:17:00,
2013-09-17 21:18:00,54.0,47.4,29.54,SSE,158,4.0,6.0,78,0.00,,,0.22,WUHU216HW,2013-09-18 03:18:00,
2013-09-17 21:19:00,54.0,47.4,29.54,SSE,158,4.5,5.8,78,0.00,,,0.22,WUHU216HW,2013-09-18 03:19:00,
2013-09-17 21:21:00,54.0,47.4,29.54,South,180,2.2,5.8,78,0.00,,,0.22,WUHU216HW,2013-09-18 03:21:00,
2013-09-17 21:22:00,54.0,47.4,29.54,SSW,203,2.2,5.8,78,0.00,,,0.22,WUHU216HW,2013-09-18 03:22:00,
2013-09-17 21:23:00,53.8,47.2,29.54,South,180,2.5,5.8,78,0.00,,,0.22,WUHU216HW,2013-09-18 03:23:00,
2013-09-17 21:24:00,53.8,47.2,29.55,South,180,2.5,5.8,78,0.00,,,0.22,WUHU216HW,2013-09-18 03:24:00,
2013-09-17 21:26:00,53.8,47.2,29.55,South,180,2.2,4.7,78,0.00,,,0.22,WUHU216HW,2013-09-18 03:26:00,
2013-09-17 21:27:00,53.8,47.2,29.55,South,180,2.7,4.7,78,0.00,,,0.22,WUHU216HW,2013-09-18 03:27:00,
2013-09-17 21:28:00,53.8,47.2,29.55,South,180,3.1,4.5,78,0.00,,,0.22,WUHU216HW,2013-09-18 03:28:00,
2013-09-17 21:29:00,53.6,47.0,29.55,South,180,2.0,4.5,78,0.00,,,0.22,WUHU216HW,2013-09-18 03:29:00,
2013-09-17 21:31:00,53.6,47.0,29.55,SSE,158,2.5,4.5,78,0.00,,,0.22,WUHU216HW,2013-09-18 03:31:00,
2013-09-17 21:32:00,53.6,47.0,29.55,SSE,158,1.1,3.4,78,0.00,,,0.22,WUHU216HW,2013-09-18 03:32:00,
2013-09-17 21:33:00,53.6,47.0,29.54,SSE,158,1.1,3.4,78,0.00,,,0.22,WUHU216HW,2013-09-18 03:33:00,
2013-09-17 21:35:00,53.6,47.3,29.54,South,180,0.0,3.4,79,0.00,,,0.22,WUHU216HW,2013-09-18 03:35:00,
2013-09-17 21:36:00,53.6,47.3,29.54,South,180,0.0,3.4,79,0.00,,,0.22,WUHU216HW,2013-09-18 03:36:00,
2013-09-17 21:38:00,53.6,47.7,29.55,East,90,1.8,3.4,80,0.00,,,0.22,WUHU216HW,2013-09-18 03:38:00,
2013-09-17 21:40:00,53.5,47.2,29.55,SE,135,2.7,4.0,79,0.00,,,0.22,WUHU216HW,2013-09-18 03:40:00,
2013-09-17 21:42:00,53.5,47.2,29.55,SSE,158,1.6,4.0,79,0.00,,,0.22,WUHU216HW,2013-09-18 03:42:00,
2013-09-17 21:43:00,53.5,47.2,29.55,SE,135,2.7,4.0,79,0.00,,,0.22,WUHU216HW,2013-09-18 03:43:00,
2013-09-17 21:44:00,53.5,47.2,29.55,SE,135,2.0,4.0,79,0.00,,,0.22,WUHU216HW,2013-09-18 03:44:00,
2013-09-17 21:45:00,53.5,47.2,29.55,ESE,113,2.5,4.0,79,0.00,,,0.22,WUHU216HW,2013-09-18 03:45:00,
2013-09-17 21:47:00,53.5,47.2,29.56,SE,135,2.7,4.0,79,0.00,,,0.22,WUHU216HW,2013-09-18 03:47:00,
2013-09-17 21:48:00,53.5,47.2,29.56,ESE,113,1.8,4.0,79,0.00,,,0.22,WUHU216HW,2013-09-18 03:48:00,
2013-09-17 21:49:00,53.5,47.2,29.56,ESE,113,2.0,3.4,79,0.00,,,0.22,WUHU216HW,2013-09-18 03:49:00,
2013-09-17 21:50:00,53.5,47.2,29.56,ESE,113,3.4,3.4,79,0.00,,,0.22,WUHU216HW,2013-09-18 03:50:00,
2013-09-17 21:52:00,53.5,47.5,29.56,SE,135,3.4,4.0,80,0.00,,,0.22,WUHU216HW,2013-09-18 03:52:00,
2013-09-17 21:54:00,53.3,47.3,29.56,SE,135,4.0,4.0,80,0.00,,,0.22,WUHU216HW,2013-09-18 03:54:00,
2013-09-17 21:55:00,53.3,47.3,29.56,SE,135,5.8,5.8,80,0.00,,,0.22,WUHU216HW,2013-09-18 03:55:00,
2013-09-17 21:58:00,53.3,48.0,29.56,South,180,6.0,8.5,82,0.00,,,0.22,WUHU216HW,2013-09-18 03:58:00,
2013-09-17 21:59:00,53.3,48.0,29.56,SSE,158,5.4,8.5,82,0.00,,,0.22,WUHU216HW,2013-09-18 03:59:00,
2013-09-17 22:00:00,53.3,48.0,29.56,South,180,8.5,8.5,82,0.00,,,0.22,WUHU216HW,2013-09-18 04:00:00,
2013-09-17 22:01:00,53.3,48.0,29.56,South,180,5.4,8.5,82,0.00,,,0.22,WUHU216HW,2013-09-18 04:01:00,
2013-09-17 22:06:00,53.1,47.8,29.58,SSW,203,4.5,8.5,82,0.00,,,0.22,WUHU216HW,2013-09-18 04:06:00,
2013-09-17 22:07:00,53.1,47.8,29.58,SSE,158,3.4,8.5,82,0.00,,,0.22,WUHU216HW,2013-09-18 04:07:00,
2013-09-17 22:11:00,53.1,47.8,29.58,SSW,203,4.0,6.9,82,0.00,,,0.22,WUHU216HW,2013-09-18 04:11:00,
2013-09-17 22:12:00,53.1,47.8,29.58,SSW,203,4.0,6.9,82,0.00,,,0.22,WUHU216HW,2013-09-18 04:12:00,
2013-09-17 22:16:00,53.1,47.8,29.58,SSE,158,6.3,6.7,82,0.00,,,0.22,WUHU216HW,2013-09-18 04:16:00,
2013-09-17 22:17:00,53.1,47.8,29.58,South,180,6.3,6.7,82,0.00,,,0.22,WUHU216HW,2013-09-18 04:17:00,
2013-09-17 22:22:00,53.1,48.1,29.58,SE,135,7.8,10.7,83,0.00,,,0.22,WUHU216HW,2013-09-18 04:22:00,
2013-09-17 22:27:00,52.9,48.3,29.58,South,180,6.0,10.7,84,0.00,,,0.22,WUHU216HW,2013-09-18 04:27:00,
2013-09-17 22:28:00,52.9,48.3,29.58,SSW,203,6.3,10.7,84,0.00,,,0.22,WUHU216HW,2013-09-18 04:28:00,
2013-09-17 22:32:00,52.7,48.1,29.59,SE,135,4.0,10.5,84,0.00,,,0.22,WUHU216HW,2013-09-18 04:32:00,
2013-09-17 22:33:00,52.7,48.1,29.59,SE,135,5.6,10.5,84,0.00,,,0.22,WUHU216HW,2013-09-18 04:33:00,
2013-09-17 22:37:00,52.6,48.8,29.58,SE,135,7.6,11.0,87,0.00,,,0.22,WUHU216HW,2013-09-18 04:37:00,
2013-09-17 22:38:00,52.6,48.8,29.58,SSW,203,7.6,11.0,87,0.00,,,0.22,WUHU216HW,2013-09-18 04:38:00,
2013-09-17 22:42:00,52.2,48.1,29.58,South,180,8.7,11.0,86,0.00,,,0.22,WUHU216HW,2013-09-18 04:42:00,
2013-09-17 22:43:00,52.2,48.4,29.58,SSE,158,9.8,11.0,87,0.00,,,0.22,WUHU216HW,2013-09-18 04:43:00,
2013-09-17 22:47:00,52.2,48.7,29.57,SE,135,6.0,9.8,88,0.00,,,0.22,WUHU216HW,2013-09-18 04:47:00,
2013-09-17 22:48:00,52.2,48.7,29.57,SE,135,6.0,9.8,88,0.00,,,0.22,WUHU216HW,2013-09-18 04:48:00,
2013-09-17 22:49:00,52.0,48.5,29.57,ESE,113,7.8,9.8,88,0.00,,,0.22,WUHU216HW,2013-09-18 04:49:00,
2013-09-17 22:52:00,52.0,48.5,29.57,SE,135,5.4,9.8,88,0.00,,,0.22,WUHU216HW,2013-09-18 04:52:00,
2013-09-17 22:53:00,51.8,48.3,29.57,ESE,113,6.3,9.8,88,0.00,,,0.22,WUHU216HW,2013-09-18 04:53:00,
2013-09-17 22:55:00,51.8,48.3,29.58,SE,135,6.5,8.1,88,0.00,,,0.22,WUHU216HW,2013-09-18 04:55:00,
2013-09-17 22:57:00,51.8,48.7,29.57,SE,135,5.4,7.8,89,0.00,,,0.22,WUHU216HW,2013-09-18 04:57:00,
2013-09-17 22:58:00,51.8,48.7,29.57,ESE,113,8.5,8.5,89,0.00,,,0.22,WUHU216HW,2013-09-18 04:58:00,
2013-09-17 23:00:00,51.8,48.7,29.57,ESE,113,7.2,9.2,89,0.00,,,0.22,WUHU216HW,2013-09-18 05:00:00,
2013-09-17 23:03:00,51.7,48.5,29.57,SE,135,6.0,9.2,89,0.00,,,0.22,WUHU216HW,2013-09-18 05:03:00,
2013-09-17 23:05:00,51.7,48.5,29.57,SE,135,5.4,9.2,89,0.00,,,0.22,WUHU216HW,2013-09-18 05:05:00,
2013-09-17 23:08:00,51.7,48.5,29.57,SE,135,6.5,9.2,89,0.00,,,0.22,WUHU216HW,2013-09-18 05:08:00,
2013-09-17 23:09:00,51.7,48.5,29.57,SE,135,7.6,8.9,89,0.00,,,0.22,WUHU216HW,2013-09-18 05:09:00,
2013-09-17 23:10:00,51.7,48.5,29.57,SSE,158,10.3,10.3,89,0.00,,,0.22,WUHU216HW,2013-09-18 05:10:00,
2013-09-17 23:13:00,51.7,48.5,29.57,SSE,158,10.1,12.8,89,0.00,,,0.22,WUHU216HW,2013-09-18 05:13:00,
2013-09-17 23:14:00,51.7,48.5,29.57,SE,135,12.1,12.8,89,0.00,,,0.22,WUHU216HW,2013-09-18 05:14:00,
2013-09-17 23:16:00,51.7,48.5,29.56,SSE,158,9.2,12.8,89,0.00,,,0.22,WUHU216HW,2013-09-18 05:16:00,
2013-09-17 23:18:00,51.7,48.5,29.56,SSE,158,9.8,12.8,89,0.00,,,0.22,WUHU216HW,2013-09-18 05:18:00,
2013-09-17 23:19:00,51.7,48.5,29.56,SE,135,8.7,12.8,89,0.00,,,0.22,WUHU216HW,2013-09-18 05:19:00,
2013-09-17 23:21:00,51.8,49.0,29.55,SE,135,9.8,12.8,90,0.00,,,0.22,WUHU216HW,2013-09-18 05:21:00,
2013-09-17 23:23:00,51.8,49.2,29.54,SSE,158,9.2,12.8,91,0.00,,,0.22,WUHU216HW,2013-09-18 05:23:00,
2013-09-17 23:24:00,51.8,49.2,29.54,SE,135,8.9,12.8,91,0.00,,,0.22,WUHU216HW,2013-09-18 05:24:00,
2013-09-17 23:26:00,51.8,49.2,29.54,SSE,158,12.3,12.8,91,0.00,,,0.22,WUHU216HW,2013-09-18 05:26:00,
2013-09-17 23:28:00,51.8,49.2,29.54,SSE,158,13.4,13.9,91,0.00,,,0.22,WUHU216HW,2013-09-18 05:28:00,
2013-09-17 23:29:00,51.8,49.2,29.54,SSE,158,13.0,13.9,91,0.00,,,0.22,WUHU216HW,2013-09-18 05:29:00,
2013-09-17 23:30:00,51.8,49.2,29.55,SSE,158,12.8,13.9,91,0.00,,,0.22,WUHU216HW,2013-09-18 05:30:00,
2013-09-17 23:31:00,51.8,49.2,29.55,SSE,158,7.4,13.9,91,0.00,,,0.22,WUHU216HW,2013-09-18 05:31:00,
2013-09-17 23:32:00,51.8,49.2,29.55,SSE,158,13.2,13.9,91,0.00,,,0.22,WUHU216HW,2013-09-18 05:32:00,
2013-09-17 23:33:00,51.8,49.2,29.55,South,180,8.9,13.9,91,0.00,,,0.22,WUHU216HW,2013-09-18 05:33:00,
2013-09-17 23:34:00,51.8,49.2,29.55,SE,135,11.2,13.9,91,0.00,,,0.22,WUHU216HW,2013-09-18 05:34:00,
2013-09-17 23:36:00,51.8,49.2,29.55,South,180,8.3,13.9,91,0.00,,,0.22,WUHU216HW,2013-09-18 05:36:00,
2013-09-17 23:37:00,51.8,49.2,29.55,SSE,158,9.8,13.4,91,0.00,,,0.22,WUHU216HW,2013-09-18 05:37:00,
2013-09-17 23:39:00,51.8,49.0,29.55,South,180,13.4,13.4,90,0.00,,,0.22,WUHU216HW,2013-09-18 05:39:00,
2013-09-17 23:41:00,51.8,49.2,29.55,SSE,158,14.5,14.5,91,0.00,,,0.22,WUHU216HW,2013-09-18 05:41:00,
2013-09-17 23:42:00,51.8,49.0,29.55,South,180,13.6,14.5,90,0.00,,,0.22,WUHU216HW,2013-09-18 05:42:00,
2013-09-17 23:44:00,51.7,48.8,29.55,South,180,12.1,14.5,90,0.00,,,0.22,WUHU216HW,2013-09-18 05:44:00,
2013-09-17 23:45:00,51.7,48.8,29.55,South,180,10.5,14.5,90,0.00,,,0.22,WUHU216HW,2013-09-18 05:45:00,
2013-09-17 23:46:00,51.7,48.8,29.55,SE,135,11.0,14.5,90,0.00,,,0.22,WUHU216HW,2013-09-18 05:46:00,
2013-09-17 23:47:00,51.7,48.8,29.55,SSE,158,6.7,14.5,90,0.00,,,0.22,WUHU216HW,2013-09-18 05:47:00,
2013-09-17 23:49:00,51.7,48.8,29.55,SSE,158,8.5,14.5,90,0.00,,,0.22,WUHU216HW,2013-09-18 05:49:00,
2013-09-17 23:50:00,51.7,48.8,29.55,SSE,158,8.9,14.5,90,0.00,,,0.22,WUHU216HW,2013-09-18 05:50:00,
2013-09-17 23:51:00,51.5,48.6,29.55,SE,135,8.5,14.5,90,0.00,,,0.22,WUHU216HW,2013-09-18 05:51:00,
2013-09-17 23:53:00,51.5,48.6,29.55,SE,135,9.2,13.4,90,0.00,,,0.22,WUHU216HW,2013-09-18 05:53:00,
2013-09-17 23:54:00,51.5,48.6,29.55,SSE,158,10.1,12.8,90,0.00,,,0.22,WUHU216HW,2013-09-18 05:54:00,
2013-09-17 23:55:00,51.5,48.6,29.55,SSE,158,9.8,12.1,90,0.00,,,0.22,WUHU216HW,2013-09-18 05:55:00,
2013-09-17 23:56:00,51.3,48.4,29.55,SSE,158,8.5,12.1,90,0.00,,,0.22,WUHU216HW,2013-09-18 05:56:00,
2013-09-17 23:58:00,51.3,48.4,29.55,SSE,158,7.8,12.1,90,0.00,,,0.00,WUHU216HW,2013-09-18 05:58:00,
2013-09-17 23:59:00,51.3,48.4,29.55,SSE,158,9.4,12.1,90,0.00,,,0.00,WUHU216HW,2013-09-18 05:59:00,